GFSFLT1_925_rhum_000.txt.gz
RH
76 79 75 78 79 79 80 84 83 88 86 86 88 80 60 61 62 64 73 66 80 76 74 74 76 73 77 78 75 76 76 78 76
79 73 78 81 87 87 85 87 86 88 86 84 87 60 54 57 60 63 66 69 71 72 73 72 73 72 71 72 70 73 77 76 77
73 81 84 89 88 82 80 77 85 87 86 83 78 55 53 59 57 64 65 73 69 72 72 70 71 73 71 72 67 71 72 72 72
79 83 89 95 82 72 67 66 73 83 85 80 63 53 47 59 56 51 53 71 68 71 71 67 69 72 76 74 67 70 68 70 70
74 80 80 86 75 55 55 68 76 73 68 68 55 49 38 54 60 58 59 75 68 68 67 64 63 67 68 66 66 66 65 68 70
84 84 78 67 64 53 60 63 58 50 42 43 47 42 39 49 54 57 60 76 70 64 53 40 52 60 60 64 64 61 64 65 66
73 81 69 64 58 53 60 55 43 42 41 55 45 44 38 39 52 56 56 75 72 70 42 38 40 51 61 64 65 65 62 64 66
75 71 70 70 71 67 60 62 48 46 41 39 42 41 36 28 43 53 51 59 74 70 62 56 54 61 64 64 64 65 66 69 66
65 66 63 67 64 59 59 54 55 47 40 34 32 33 34 27 29 39 42 52 56 72 68 58 59 62 65 64 65 67 68 67 67
61 64 65 65 65 60 56 57 58 57 42 37 33 33 33 34 33 29 28 23 37 39 66 56 56 59 61 63 64 66 68 70 71
60 64 67 69 71 66 64 58 59 60 46 39 37 34 33 34 34 34 34 29 23 21 36 57 55 57 57 59 60 63 66 67 71
63 64 66 69 68 69 68 68 68 62 57 48 39 37 34 32 34 34 33 34 33 25 25 33 54 56 56 56 57 59 60 64 67
75 66 66 68 68 68 67 67 65 61 59 57 49 44 40 38 35 33 33 35 36 36 29 26 27 43 56 55 55 55 57 58 62
78 75 67 67 69 69 69 68 67 64 60 59 56 54 54 52 46 40 36 37 41 41 40 36 33 32 33 51 56 57 58 60 62
78 77 77 70 68 71 71 72 70 70 63 60 58 54 56 57 55 47 42 40 42 46 47 48 46 40 36 36 53 59 61 63 66
80 80 79 78 73 71 72 72 72 68 73 72 68 64 64 63 63 58 51 44 46 49 47 46 45 43 40 36 36 39 56 68 70
83 83 81 79 79 77 74 74 72 73 69 72 70 72 54 55 59 58 56 50 45 45 46 53 48 49 52 51 51 50 50 52 74
87 87 84 82 82 80 79 77 78 74 72 77 70 69 65 54 50 53 50 48 50 52 54 61 56 53 55 57 59 60 60 55 56
86 88 88 85 84 84 82 83 81 82 77 77 78 74 65 65 62 55 59 57 55 51 55 60 59 60 62 63 63 62 59 59 58
85 88 89 87 86 83 82 82 83 82 84 81 77 78 77 75 74 73 62 59 60 60 58 57 58 61 64 65 61 61 62 60 60

GFSFLT1_925_rhum_003.txt.gz
RH
76 75 73 77 78 81 78 82 82 89 86 85 88 74 51 60 58 61 68 73 74 73 75 76 72 72 72 72 74 76 76 77 78
77 80 77 86 88 86 84 86 85 88 85 86 88 58 51 61 55 59 60 70 72 72 71 72 74 72 72 69 70 74 72 73 74
79 85 86 88 89 83 79 79 85 87 86 83 81 52 51 54 51 58 64 69 70 72 70 70 72 74 73 69 68 70 70 70 69
81 77 89 95 85 78 67 66 71 82 87 85 77 50 47 60 49 48 58 69 68 71 67 66 71 73 76 70 67 68 69 70 70
76 71 85 90 78 66 51 62 74 82 81 77 66 48 36 56 56 52 63 69 68 67 60 56 63 66 66 67 66 63 65 65 67
74 77 83 73 65 60 52 65 63 64 56 49 52 41 49 42 49 51 59 65 69 57 44 36 45 62 58 57 61 65 63 64 66
64 80 77 69 61 54 47 55 48 41 45 54 41 48 39 34 44 50 59 52 75 71 66 51 48 51 59 64 66 67 66 65 66
69 68 79 76 77 72 61 57 50 45 41 36 46 41 35 29 31 43 52 43 73 73 73 67 63 62 63 66 66 67 68 68 70
58 59 60 60 61 60 56 52 49 45 41 35 32 33 32 31 24 33 42 38 39 72 74 71 62 62 64 67 67 68 70 71 71
53 54 56 56 56 53 52 50 49 52 45 37 32 30 29 31 32 29 28 26 24 29 58 67 65 59 62 64 65 67 69 71 72
52 52 56 58 60 58 55 52 51 52 53 40 35 34 32 32 31 33 33 33 30 20 21 51 56 59 58 60 61 63 65 67 69
59 55 56 60 60 61 60 58 55 52 53 48 38 35 34 31 32 33 33 34 34 34 26 32 49 56 58 58 59 60 62 64 65
66 62 59 59 62 62 62 60 60 58 55 54 52 45 38 36 34 32 33 34 34 36 35 32 29 50 56 57 57 59 60 59 61
69 69 65 60 63 64 63 61 61 60 59 56 52 52 50 48 45 41 38 36 36 37 39 40 38 36 39 57 58 59 60 60 62
69 71 71 67 63 66 66 66 64 64 62 58 51 52 53 52 52 53 51 49 45 43 44 43 44 44 41 43 61 61 61 62 64
71 74 74 72 71 66 66 68 69 68 66 64 62 61 60 58 58 59 59 58 49 43 43 46 50 49 47 44 41 52 65 66 69
71 74 76 75 75 73 69 67 69 70 68 64 66 72 62 59 58 58 59 60 56 52 49 49 47 46 46 47 50 50 49 64 74
74 75 77 78 76 76 76 73 72 72 72 69 68 73 73 56 50 53 54 54 51 48 46 49 56 58 52 52 52 54 56 60 63
76 77 79 80 80 79 78 77 77 77 77 76 73 69 61 67 64 55 56 52 50 52 53 55 55 59 58 57 58 60 62 61 58
75 78 80 82 82 81 82 80 79 78 80 78 77 79 78 74 75 76 64 61 58 57 54 54 57 56 57 60 60 58 60 59 60

GFSFLT1_925_rhum_006.txt.gz
RH
76 72 72 78 79 82 79 82 83 81 87 82 84 48 58 60 62 65 70 66 73 75 75 75 72 73 72 69 75 74 76 76 72
77 78 76 84 84 86 84 84 85 89 86 88 86 48 58 59 58 63 69 64 72 71 71 74 74 72 71 67 73 72 71 70 71
79 76 75 88 90 85 82 81 86 88 87 84 81 44 56 56 55 62 68 68 72 71 70 72 74 74 73 68 70 70 70 70 69
74 72 81 95 86 78 66 68 76 86 87 86 80 46 52 56 53 57 56 53 68 72 66 67 71 72 74 66 63 66 68 69 70
75 67 79 86 80 69 55 57 68 80 87 84 62 43 41 55 56 55 62 53 68 67 62 57 58 62 61 63 62 59 63 65 66
75 72 82 79 71 62 52 60 70 70 64 56 45 39 29 46 52 54 55 48 66 63 53 35 38 48 49 48 56 66 65 65 66
73 75 76 78 70 58 50 51 50 49 45 44 38 31 34 38 42 51 54 51 65 68 64 42 36 48 52 57 65 67 69 68 68
62 68 73 72 62 58 55 40 35 35 43 45 50 42 36 38 32 44 50 53 49 74 74 72 65 64 63 65 67 68 68 69 69
61 65 66 68 65 67 69 58 55 47 44 42 37 41 40 36 30 27 38 43 44 61 75 74 74 66 65 65 67 69 70 71 73
56 58 59 60 59 62 57 57 52 50 50 41 36 32 30 31 32 27 25 31 33 35 61 66 71 70 64 64 67 69 70 71 72
56 53 54 56 57 57 56 53 51 49 52 52 42 36 31 29 29 32 32 30 30 28 31 54 58 61 63 62 63 65 67 68 69
59 56 52 55 58 60 60 58 55 52 52 53 53 41 36 34 32 30 31 33 34 33 32 43 49 53 56 58 60 62 63 63 66
60 62 56 54 58 61 62 62 60 59 56 54 55 51 42 37 35 34 32 31 32 32 33 32 38 50 53 55 57 60 60 61 64
63 64 65 60 59 61 63 63 63 62 62 60 58 55 54 51 43 38 36 35 34 33 33 32 33 32 35 54 56 58 60 61 64
64 66 68 69 62 61 64 65 64 63 62 62 63 60 56 53 52 52 51 47 44 40 38 37 38 38 38 41 56 58 61 62 64
64 66 70 72 71 64 64 68 67 66 65 66 65 63 60 58 55 54 53 53 54 54 51 48 45 45 44 41 42 61 64 66 66
66 66 72 74 76 75 69 68 72 73 72 73 75 83 72 66 64 62 63 62 61 61 60 57 47 45 46 46 42 42 58 66 69
70 71 72 76 78 79 79 74 71 75 74 72 73 87 86 80 56 60 64 64 62 61 61 58 54 50 49 46 49 50 52 53 74
70 72 74 75 78 81 81 80 77 76 76 77 71 69 66 77 81 56 52 55 55 51 48 48 47 46 48 58 58 54 52 54 66
65 70 74 76 80 82 84 84 79 79 79 78 73 79 77 76 78 81 68 58 56 54 50 50 55 55 55 57 58 55 55 58 66

GFSFLT1_925_rhum_009.txt.gz
RH
77 73 73 80 82 81 80 85 80 76 80 79 75 46 60 62 69 71 70 56 75 76 76 74 74 73 69 74 73 73 73 73 74
80 73 74 83 78 83 81 81 86 87 87 80 77 46 59 61 65 75 69 58 73 71 75 76 72 73 68 73 72 72 70 69 70
78 72 82 83 90 89 84 83 85 89 86 88 80 44 58 58 67 70 68 62 73 70 71 73 75 74 70 68 71 70 70 70 70
74 68 75 90 89 82 79 74 80 88 87 85 84 40 54 56 59 68 63 55 70 71 67 71 73 75 74 66 65 67 69 69 70
71 68 72 91 85 78 70 60 68 78 87 90 70 43 45 56 54 57 59 49 66 68 62 64 65 68 67 67 64 57 63 65 66
65 72 68 74 77 71 61 56 67 76 84 79 57 40 32 54 54 58 60 60 67 65 65 59 59 62 62 58 59 65 67 66 66
70 77 74 74 77 74 60 58 62 54 56 56 44 38 29 43 46 52 58 59 64 64 63 60 56 58 62 64 64 66 67 68 68
69 74 78 76 74 72 57 52 46 39 41 41 44 45 32 32 38 40 51 53 63 64 69 71 66 63 63 66 67 69 69 70 70
68 66 64 68 69 61 64 60 56 33 32 44 47 45 50 32 40 34 34 44 56 66 66 73 76 75 69 67 67 69 71 71 71
62 59 62 62 67 63 63 61 62 55 53 44 44 43 39 41 40 36 30 29 38 58 64 66 70 74 75 71 68 69 71 73 73
58 57 57 59 62 60 57 61 59 57 54 51 51 42 36 33 31 32 32 30 26 28 54 58 62 65 66 69 70 68 70 72 73
57 58 56 54 56 58 58 58 57 55 51 50 52 54 50 40 35 31 29 30 33 32 36 50 55 57 59 60 62 65 66 68 70
56 57 59 57 53 56 58 60 61 59 57 55 53 54 55 54 43 37 36 34 30 30 31 32 36 48 56 56 56 58 60 65 68
57 58 58 61 58 55 58 60 63 64 63 60 59 56 56 56 55 49 42 38 36 34 33 32 31 32 37 49 53 56 57 60 64
58 60 61 62 64 61 59 62 63 64 65 64 66 64 62 60 57 55 55 52 44 38 38 36 35 35 35 37 49 52 54 59 63
62 61 63 66 67 67 67 62 65 68 67 68 72 67 65 65 64 62 59 55 54 53 52 46 44 43 43 41 42 49 55 58 62
67 66 65 66 70 73 73 71 72 74 74 74 80 81 71 70 70 71 67 63 60 58 55 55 55 55 54 52 51 46 53 59 63
68 68 69 70 72 77 80 80 77 76 77 78 74 93 91 88 64 69 70 70 69 68 67 65 61 61 62 62 57 47 46 55 62
61 65 69 71 74 77 80 83 85 82 79 81 84 76 71 78 81 66 60 60 60 62 62 64 64 63 62 60 56 52 46 49 63
55 60 68 70 74 77 81 85 87 90 86 82 79 85 82 78 78 83 68 68 66 60 56 59 60 51 46 45 46 46 50 57 64

GFSFLT1_925_rhum_012.txt.gz
RH
78 74 78 81 82 83 86 85 79 79 74 75 78 48 59 65 72 81 79 55 74 75 75 75 75 72 74 76 73 75 73 74 74
80 78 77 83 84 85 81 86 84 77 85 86 79 50 61 63 71 77 72 67 75 75 77 74 73 72 70 76 72 71 70 70 71
80 80 83 86 91 91 86 82 84 89 87 87 88 47 58 62 63 73 71 62 72 71 72 76 75 73 69 71 72 71 70 70 69
84 80 86 91 93 90 87 81 81 86 88 86 89 50 55 59 63 74 70 67 71 71 70 72 75 74 71 66 69 70 70 70 68
76 76 71 92 96 86 82 79 73 78 89 89 86 61 46 55 59 70 69 65 66 70 67 68 72 72 73 69 65 64 64 65 68
71 71 72 70 75 78 74 73 70 68 75 87 88 61 40 49 57 58 58 62 68 69 69 64 63 66 67 66 68 69 68 67 66
70 66 76 74 67 72 74 73 62 59 65 68 73 66 45 34 53 56 55 64 74 72 68 68 62 60 62 63 64 66 69 70 70
67 68 75 78 77 78 76 70 58 53 49 50 54 55 42 35 34 51 50 55 78 73 68 69 67 61 60 62 66 68 68 70 71
64 68 68 75 75 75 71 63 56 52 41 38 43 42 44 45 33 32 41 44 78 70 69 70 73 72 68 65 66 69 70 72 72
65 64 66 68 66 66 67 64 64 61 58 40 35 41 46 43 49 33 38 40 41 62 66 69 70 74 77 76 72 71 71 72 74
64 64 63 64 62 61 64 66 61 60 60 57 55 49 46 44 40 39 41 40 35 32 53 58 64 67 69 73 76 77 74 73 74
64 62 61 60 59 58 62 67 64 64 63 61 57 53 52 52 49 39 35 32 32 33 48 50 53 59 63 65 67 70 76 77 75
60 60 60 59 59 58 58 60 62 60 60 60 58 55 52 52 54 55 52 43 36 33 31 31 36 48 50 55 59 61 65 69 74
55 56 56 57 58 60 60 57 61 65 64 63 63 62 59 58 56 56 57 56 48 40 37 36 33 32 36 46 48 52 58 62 65
56 56 57 58 60 62 64 64 62 63 70 73 72 70 68 64 64 63 61 60 58 56 54 51 44 38 36 36 47 49 51 54 59
62 62 62 62 62 64 66 68 70 71 73 79 76 76 71 71 73 73 70 67 65 63 60 57 55 51 44 44 40 42 51 54 57
68 69 69 69 69 70 73 75 77 79 78 79 79 85 70 70 71 71 73 72 73 71 68 64 61 57 55 54 53 51 50 62 62
69 71 73 73 74 76 77 80 83 82 79 81 82 95 92 88 65 65 68 72 70 68 71 71 68 66 65 62 60 57 56 60 69
61 65 72 80 81 81 80 81 84 88 88 84 88 84 80 89 83 64 68 62 62 64 65 66 65 67 64 63 59 58 61 61 64
44 44 45 50 77 88 87 89 90 91 93 89 87 90 92 89 92 93 76 67 67 67 66 66 68 71 69 67 62 59 62 59 60

GFSFLT1_925_rhum_015.txt.gz
RH
80 78 78 84 83 84 88 79 79 79 77 78 82 73 73 67 71 76 78 78 68 77 75 74 75 75 76 77 76 77 74 75 75
82 78 78 85 84 85 81 88 87 81 81 78 83 78 68 66 68 79 81 64 77 76 76 77 76 73 73 76 73 72 72 73 72
77 87 83 86 88 87 86 82 84 87 87 88 88 86 68 63 65 77 77 71 77 73 76 77 74 74 69 75 74 72 71 70 69
77 86 86 90 91 94 92 89 84 83 87 88 87 92 63 60 62 67 76 72 79 71 72 74 76 76 73 69 72 72 71 70 69
79 84 80 89 94 95 94 90 85 80 83 89 90 85 68 56 59 61 75 72 78 72 72 71 72 75 75 71 67 68 69 70 70
70 70 70 72 89 94 96 93 89 77 73 79 89 90 73 54 54 57 63 70 78 74 68 73 69 71 73 74 71 69 67 66 67
70 68 66 72 76 83 91 94 91 79 68 61 67 83 80 61 48 50 57 59 76 78 72 74 71 67 68 72 70 69 70 70 71
72 69 69 67 77 79 78 82 83 80 66 55 53 61 69 63 50 39 44 56 68 78 76 75 75 72 67 66 68 68 68 70 72
71 71 67 69 71 75 79 79 80 78 66 56 48 42 46 51 46 36 33 42 56 68 76 77 76 75 72 67 66 68 70 72 73
68 69 70 69 70 70 74 76 74 72 63 61 57 47 35 38 40 42 42 39 34 48 66 75 73 74 76 76 73 71 71 72 74
66 66 67 68 67 64 68 69 69 69 68 65 63 62 55 47 39 43 42 41 44 36 58 61 64 64 69 73 77 80 80 77 76
63 63 65 65 64 65 66 67 67 67 69 68 64 63 62 60 57 55 51 50 45 38 38 58 58 60 58 61 67 72 77 82 85
59 61 60 58 61 63 64 63 63 63 64 66 64 62 60 60 59 57 53 52 52 54 50 40 41 48 54 50 52 58 66 72 76
54 56 55 56 58 60 62 63 65 68 68 66 64 64 63 62 63 63 62 60 58 56 55 56 55 46 42 49 50 50 53 58 66
54 55 56 58 59 61 63 65 69 69 71 74 75 76 74 71 70 70 71 71 68 66 63 61 58 56 54 48 54 54 54 55 57
65 67 68 68 67 66 70 74 77 78 77 86 80 80 79 77 79 76 76 76 74 75 73 70 66 63 62 61 60 61 60 59 59
78 80 83 84 83 81 81 82 84 84 82 81 82 92 74 70 68 70 74 69 69 76 75 74 73 70 68 66 65 63 67 68 67
54 53 57 68 85 91 89 88 89 90 87 85 86 98 91 85 66 65 67 68 68 61 61 65 63 63 65 66 64 64 63 65 71
46 46 47 48 53 68 91 95 95 95 96 93 90 88 85 92 87 68 70 70 72 69 67 65 60 59 60 61 61 60 60 61 74
38 37 37 39 41 46 52 60 92 97 99 98 96 94 96 94 96 92 83 77 77 75 75 75 71 70 67 66 64 63 62 63 68

GFSFLT1_925_rhum_018.txt.gz
RH
75 82 79 82 85 84 86 90 84 78 81 82 82 88 78 69 68 76 74 79 77 75 78 79 78 76 76 78 75 78 76 75 76
80 81 80 82 85 85 84 84 88 86 84 83 80 84 81 67 67 71 79 82 66 78 76 77 77 74 73 77 75 75 74 74 74
77 85 88 83 86 87 87 85 82 86 86 85 87 89 88 75 67 67 78 80 71 79 76 78 77 75 72 74 76 74 72 71 71
82 80 88 87 88 90 96 93 90 86 84 86 88 89 90 88 65 64 67 77 75 83 73 75 78 77 76 71 74 76 74 72 71
79 83 85 88 90 95 94 95 93 91 85 84 90 88 85 89 71 61 62 68 77 87 78 74 75 76 78 76 71 73 74 74 72
67 69 74 75 78 92 93 94 94 93 86 74 71 75 87 86 75 62 58 60 77 87 83 74 75 73 74 77 78 72 70 70 71
76 76 72 73 74 78 90 94 92 91 91 80 66 62 65 76 76 67 54 56 71 82 83 80 74 77 73 73 76 77 74 72 70
77 77 76 72 70 70 78 80 80 83 83 80 73 60 55 57 60 61 59 51 68 76 76 79 79 78 80 74 71 73 74 73 73
72 72 68 68 65 67 70 72 74 77 77 77 70 62 56 48 40 40 45 50 50 66 73 73 76 77 78 80 76 71 71 73 73
61 62 63 63 66 66 65 66 66 69 69 69 71 67 62 58 55 39 31 36 40 50 63 65 69 70 74 79 79 77 74 72 73
55 62 63 65 65 66 66 66 66 67 69 67 66 65 65 61 58 57 54 48 40 41 54 66 58 58 64 70 75 79 81 78 76
57 61 64 62 60 62 65 67 68 70 69 68 66 64 62 61 60 59 58 56 54 51 49 60 65 60 58 59 63 68 74 80 85
57 61 58 57 61 65 65 66 68 69 69 68 66 66 65 64 63 62 61 60 60 59 57 53 54 62 61 57 56 60 62 66 72
60 59 59 62 64 66 68 69 73 77 78 76 73 75 73 70 69 69 68 67 66 65 63 62 61 59 58 65 62 59 59 59 60
63 66 68 72 76 78 79 80 81 82 81 83 82 80 79 78 75 74 74 72 72 72 71 70 69 67 65 65 70 68 67 64 61
85 87 86 86 88 88 89 88 87 87 88 90 86 84 80 78 76 72 75 75 69 73 71 70 71 72 71 70 69 74 73 72 71
51 50 52 56 64 71 83 97 98 92 90 90 90 94 76 73 69 68 69 69 69 76 70 71 70 67 65 63 60 60 70 77 78
40 39 38 39 41 49 54 76 94 99 96 95 96 95 89 82 76 72 70 71 72 71 70 70 71 71 68 66 64 59 55 56 73
35 36 38 41 44 45 48 50 59 74 93 93 91 97 97 88 88 73 78 74 73 77 76 76 73 73 71 71 66 60 59 59 68
37 37 38 40 43 45 46 46 51 62 78 87 93 92 87 85 91 91 78 76 78 82 80 84 84 80 74 77 74 71 66 64 64

GFSFLT1_925_rhum_021.txt.gz
RH
72 79 82 80 85 86 84 84 84 85 79 79 83 83 83 81 71 67 74 74 79 86 76 79 83 83 78 79 75 75 80 74 76
74 84 81 81 86 85 86 82 86 89 87 86 86 82 85 84 75 66 71 76 78 85 77 77 76 76 74 77 76 77 75 74 74
75 79 86 88 85 88 88 88 85 83 84 84 83 82 82 90 86 67 66 76 81 87 82 78 79 78 76 73 78 76 74 74 74
80 81 84 88 86 85 78 79 83 92 88 86 85 86 83 86 94 80 66 66 78 92 86 78 77 79 78 76 73 78 76 74 73
75 78 83 89 90 90 84 80 82 93 92 91 87 85 84 84 90 92 76 62 64 92 89 85 77 76 77 79 78 74 77 76 75
79 74 69 73 77 91 94 92 94 82 82 85 85 78 74 79 87 90 71 64 68 80 88 85 82 77 77 77 79 80 74 74 75
77 75 74 72 68 68 68 77 86 86 93 92 83 82 76 72 73 76 57 64 81 79 78 84 84 82 77 79 76 78 80 79 74
75 73 70 70 68 66 65 66 69 74 83 83 79 72 68 60 52 43 34 44 72 80 75 79 80 80 80 78 80 77 76 78 79
67 68 69 69 63 64 64 63 63 64 65 68 72 71 69 65 60 53 46 33 30 66 75 71 72 77 78 78 78 81 77 74 76
64 62 62 63 63 64 64 66 67 68 68 67 70 70 70 68 67 64 58 54 50 38 60 66 64 63 70 74 77 80 85 80 75
66 63 60 60 66 68 70 72 75 77 81 75 76 68 68 65 67 66 63 60 58 58 60 67 63 65 63 63 68 73 79 84 85
67 66 62 62 65 67 70 71 72 73 76 80 75 76 75 72 69 68 67 65 63 61 59 65 74 70 66 65 63 62 65 76 83
69 66 62 62 65 68 70 72 74 76 78 77 76 78 78 73 70 73 72 68 65 65 64 64 64 71 74 70 67 64 64 65 68
65 65 67 73 78 83 86 87 89 88 86 85 85 85 86 83 82 80 78 73 67 66 67 62 62 65 71 77 73 69 68 67 66
86 87 88 87 87 91 92 94 92 91 90 89 88 87 85 84 83 82 81 79 78 75 73 70 72 66 65 68 80 79 77 75 72
50 50 51 50 73 78 82 88 89 84 86 96 90 82 81 81 80 78 80 81 79 81 80 79 76 74 68 68 68 83 84 82 82
38 37 38 39 41 45 54 67 73 74 78 87 91 86 68 61 74 75 78 78 79 80 80 80 80 80 78 76 67 66 74 83 84
34 35 37 37 40 55 56 64 69 66 64 68 76 78 74 76 69 70 74 75 79 80 82 84 84 83 83 84 80 76 71 69 81
36 37 38 39 47 57 61 60 69 72 68 67 58 73 73 74 74 50 62 64 68 73 71 75 81 83 84 84 84 82 78 76 86
35 35 34 37 54 55 55 59 63 67 69 71 73 76 76 72 80 82 62 66 60 66 68 70 70 78 81 84 87 88 88 92 95

GFSFLT1_925_rhum_027.txt.gz
RH
73 79 83 81 84 84 84 79 83 85 79 85 79 81 86 77 69 59 56 60 68 72 80 87 78 80 84 81 78 78 74 73 76
73 74 76 78 85 87 86 86 84 79 84 86 83 78 74 78 68 63 56 56 64 75 82 82 77 78 76 76 75 77 76 75 76
68 73 78 81 89 86 85 82 86 85 79 85 85 81 75 74 67 66 61 60 64 79 85 84 86 83 80 79 78 76 78 77 76
70 77 83 86 88 87 87 91 94 95 93 81 80 79 74 80 70 65 59 59 65 70 81 85 83 86 85 79 78 78 77 79 78
71 72 66 72 70 86 79 73 82 91 97 88 73 75 77 82 68 62 60 58 67 72 77 82 83 80 82 87 78 78 79 77 79
68 67 69 65 63 64 71 81 73 67 71 69 69 74 82 68 54 47 47 52 67 75 79 80 81 82 81 80 89 82 80 79 79
62 67 64 65 64 65 64 64 62 68 80 67 64 76 70 59 55 53 48 46 59 70 80 80 79 80 83 82 80 85 88 82 79
59 62 64 70 67 76 69 68 69 66 62 60 58 57 57 57 58 56 56 55 60 67 73 74 77 79 79 80 82 81 82 86 82
57 56 58 64 65 64 65 64 62 63 63 62 60 58 58 59 59 59 59 60 62 72 80 81 74 72 77 76 76 80 82 82 87
55 56 58 61 62 63 64 64 64 63 61 61 60 61 61 62 63 64 64 64 65 67 77 86 86 79 74 73 75 77 80 83 84
65 66 65 64 64 64 64 64 64 65 64 63 62 60 59 59 59 60 62 62 63 65 67 82 90 90 84 80 74 74 77 78 81
72 70 69 66 63 64 65 66 67 67 69 68 65 62 60 61 62 63 63 64 64 64 64 71 83 89 93 88 85 82 77 76 76
70 67 65 68 71 71 72 71 66 63 60 57 56 56 56 57 57 57 58 60 62 64 65 67 71 80 83 86 90 87 86 86 82
73 72 67 61 62 58 55 50 50 48 45 45 43 45 46 50 50 51 51 55 57 60 63 64 66 69 70 78 82 84 88 90 92
52 49 44 43 42 40 40 39 41 40 37 36 38 38 38 39 40 52 52 53 55 50 47 51 57 62 66 65 75 80 83 86 87
43 42 41 42 41 41 43 42 46 43 42 43 43 41 41 36 38 39 36 37 36 37 37 42 50 54 54 64 72 81 86 86 86
43 45 44 44 43 42 42 40 42 40 38 40 40 43 38 34 37 30 38 36 38 42 41 43 47 48 45 46 53 56 66 66 72
41 42 39 38 37 35 33 31 36 36 34 30 37 44 40 45 38 37 35 33 32 35 36 33 35 39 42 45 49 52 60 67 69
34 34 34 31 28 28 30 26 35 32 30 29 29 35 39 50 51 31 31 30 30 28 32 34 33 37 45 46 45 53 56 62 69
30 27 28 25 25 27 29 29 34 35 30 34 35 38 44 44 39 40 33 33 32 32 38 40 47 40 33 46 44 43 44 53 63

GFSFLT1_925_rhum_030.txt.gz
RH
74 82 80 71 82 86 84 72 72 72 79 87 87 83 87 81 72 72 64 56 60 68 78 80 87 79 82 86 81 78 79 75 72
74 73 77 78 81 86 88 86 81 78 69 66 76 81 74 73 72 64 65 60 58 64 74 82 82 78 78 77 77 77 77 79 76
68 71 78 79 89 86 88 92 93 94 90 90 89 79 70 68 73 72 67 68 63 63 74 82 84 82 86 83 80 79 77 80 78
73 69 74 79 86 88 82 87 92 94 97 96 94 85 78 74 69 64 68 62 66 68 70 74 83 85 81 90 86 82 81 81 81
67 65 67 68 68 60 67 73 79 86 90 87 79 70 70 73 69 65 58 56 64 66 71 75 78 83 82 81 88 89 82 81 81
67 72 75 70 61 58 58 59 60 56 59 58 64 70 71 73 68 65 54 52 59 61 69 75 78 78 82 83 83 83 91 84 83
64 65 64 64 64 62 64 66 67 68 67 64 67 64 63 67 64 60 55 54 53 56 63 72 79 80 79 81 83 84 83 89 88
55 60 63 64 68 68 67 67 67 65 65 64 62 62 62 62 58 58 58 57 59 62 64 68 76 82 81 81 80 81 84 86 86
57 56 58 60 62 64 64 65 65 64 64 64 63 62 61 61 61 62 62 62 62 67 70 74 80 85 86 80 81 80 82 84 86
56 57 59 61 62 64 64 65 66 65 65 65 65 64 64 61 60 60 63 64 65 65 69 75 79 83 87 90 85 80 81 83 84
67 68 67 66 66 65 65 65 66 68 69 70 68 65 64 62 61 60 59 59 60 60 67 77 78 81 83 83 87 91 87 82 83
72 73 70 67 66 69 70 71 69 64 62 60 59 58 57 56 55 56 57 58 60 62 63 63 65 78 81 81 80 82 86 92 94
69 70 68 66 66 55 54 46 44 43 40 38 38 39 41 39 42 49 50 51 49 54 57 61 62 66 70 73 71 73 78 82 85
60 54 49 44 43 40 40 40 43 44 43 43 41 39 38 39 40 39 44 48 45 39 39 39 42 49 55 65 71 79 83 82 85
43 41 42 41 42 43 44 43 42 43 44 41 40 41 30 37 43 40 31 22 33 36 35 39 44 47 47 55 65 66 71 74 76
42 44 43 42 43 41 38 37 36 37 36 35 39 28 33 28 34 23 28 31 28 37 41 34 40 37 35 37 44 52 55 58 61
38 36 37 34 34 32 30 29 34 37 34 38 37 60 39 35 22 32 38 34 31 18 26 34 27 28 33 33 32 39 55 60 64
31 29 28 27 27 28 28 28 33 38 32 30 38 64 63 46 38 41 38 26 21 33 25 25 26 32 36 46 48 36 48 58 58
24 26 24 24 24 25 27 26 30 39 37 34 33 37 41 56 62 42 32 29 28 30 34 33 41 44 40 35 27 36 36 44 47
24 24 22 23 23 23 25 26 28 38 42 40 39 41 45 48 50 49 39 38 37 39 41 47 38 36 37 35 28 31 47 46 46

GFSFLT1_925_rhum_033.txt.gz
RH
82 85 74 74 67 68 68 61 61 66 70 69 86 85 86 83 77 68 72 68 61 61 72 79 81 83 80 84 87 85 80 80 77
75 73 74 77 71 78 82 78 77 80 78 80 81 79 78 73 70 71 61 65 68 62 65 77 83 83 80 80 79 78 79 79 80
72 72 72 77 78 89 88 91 94 93 96 94 93 89 76 72 66 60 57 63 69 73 66 71 80 82 82 80 83 84 80 80 80
74 71 66 71 88 88 88 86 90 93 96 96 93 87 79 77 73 69 61 49 64 72 71 73 75 79 82 84 80 91 87 84 82
69 67 62 69 70 64 59 67 77 75 66 61 60 62 71 70 71 68 60 57 56 72 68 72 75 77 79 83 84 84 92 89 86
66 72 74 72 64 57 53 54 56 58 60 62 61 67 69 67 67 66 62 58 54 73 62 63 72 77 79 80 82 83 86 86 90
67 69 65 63 66 67 66 65 67 67 66 65 64 64 63 62 64 64 61 60 62 63 60 58 60 73 81 84 83 81 82 82 84
60 60 60 62 62 64 66 66 66 67 66 66 65 65 64 64 62 61 61 60 64 67 66 66 64 69 78 84 87 86 85 83 82
56 57 59 60 62 63 64 65 66 67 68 68 67 68 68 66 65 64 63 63 65 70 70 72 73 76 82 85 86 88 85 85 86
60 62 64 64 65 66 66 66 67 68 70 70 68 67 63 59 60 61 62 61 62 60 69 72 73 76 81 83 86 86 88 93 90
70 69 71 70 68 68 68 70 65 60 56 56 54 50 49 52 50 49 49 52 52 54 66 68 68 70 70 71 75 77 79 82 84
74 73 71 65 67 65 58 53 50 49 42 38 36 38 37 37 36 35 41 41 45 47 47 50 68 71 72 76 80 76 72 71 78
70 64 57 46 48 45 42 38 36 38 39 39 40 36 30 25 28 38 42 39 30 35 34 34 37 46 59 70 72 72 70 77 79
53 48 43 41 40 39 40 38 34 32 35 31 25 25 14 26 42 39 30 20 24 23 33 36 32 37 40 50 54 56 57 60 62
42 38 38 40 40 37 29 26 23 31 33 21 28 11 27 26 35 17 12 27 21 36 25 21 28 29 35 44 45 46 49 50 52
36 34 30 30 31 28 23 24 24 27 31 33 25 20 27 29 19 11 34 21 36 26 19 28 26 23 23 28 43 50 54 52 52
27 26 24 23 22 20 22 25 31 36 36 36 44 59 42 29 18 38 28 41 25 18 29 20 23 28 36 46 48 49 43 41 48
25 23 22 21 18 19 22 23 28 43 39 33 43 61 67 44 38 34 40 30 25 32 26 33 36 44 46 34 36 40 36 43 47
23 22 21 21 19 19 23 24 25 26 44 35 34 32 40 70 69 47 37 34 37 38 39 41 42 50 40 38 31 38 41 38 37
21 21 22 21 20 21 22 24 22 27 38 33 40 34 36 39 65 50 46 40 39 39 41 39 52 44 43 36 36 38 34 41 50

GFSFLT1_925_rhum_036.txt.gz
RH
85 87 72 74 68 77 83 79 75 73 74 78 84 89 88 86 74 71 66 71 69 77 63 77 80 81 80 80 87 88 88 85 83
78 73 72 75 72 76 82 88 88 82 77 80 88 86 76 71 66 60 56 58 66 81 70 66 80 84 83 81 81 81 80 80 81
82 78 71 69 69 81 85 90 94 91 88 93 92 93 84 77 74 72 68 58 56 82 80 72 70 77 78 78 82 84 86 82 81
74 74 69 65 78 84 80 79 81 86 87 82 82 83 85 80 75 74 70 60 52 71 80 75 75 76 78 80 74 83 81 92 89
69 73 70 69 71 68 59 55 58 64 60 60 58 58 64 68 69 67 65 62 58 76 78 75 73 77 79 80 80 80 84 86 87
63 70 72 71 66 66 59 62 62 67 67 67 66 66 64 65 64 64 62 64 64 79 82 78 67 67 73 80 84 84 82 81 84
66 67 69 66 66 66 67 67 68 68 68 67 67 67 67 67 66 65 64 63 63 78 82 71 68 63 64 68 83 88 88 85 83
63 62 62 63 65 64 66 66 67 68 70 69 69 69 70 70 68 65 67 68 70 79 74 74 74 76 75 76 81 84 88 85 87
59 60 62 63 64 65 66 68 70 71 72 74 73 70 71 66 69 65 58 57 63 72 72 76 73 74 78 84 88 88 88 92 95
61 62 67 71 71 73 73 71 70 66 62 58 55 52 50 47 46 42 42 43 48 50 65 68 76 79 76 75 76 78 82 85 84
71 75 75 73 71 66 61 57 54 51 48 48 43 39 38 38 36 34 34 38 40 41 58 59 61 64 70 72 76 78 81 82 82
76 72 64 55 55 59 54 48 38 33 31 30 29 27 25 21 19 30 37 28 31 28 32 56 51 65 64 67 65 65 67 71 71
68 60 53 52 51 49 41 34 29 23 22 19 16 15 13 15 40 39 22 26 22 23 34 25 43 45 50 52 57 60 60 61 63
60 51 46 42 37 35 29 22 20 22 20 16 16 11 12 33 38 26 14 34 22 33 25 25 26 28 41 48 49 51 54 59 62
40 34 34 32 28 24 19 18 17 30 27 17 14 11 17 30 27 13 29 22 23 28 22 21 18 15 39 40 50 58 57 57 53
30 26 24 23 22 18 18 16 19 29 30 28 20 15 27 28 23 26 29 22 36 24 21 20 20 22 22 49 56 56 55 53 47
26 25 23 20 16 16 18 20 22 32 37 37 50 62 42 34 14 38 24 40 20 24 22 28 33 40 32 50 54 51 48 43 43
24 22 21 18 16 18 21 23 22 30 37 34 36 48 61 50 34 27 42 23 38 29 35 34 39 42 41 51 38 47 45 46 48
22 21 20 18 18 18 20 22 21 28 37 32 37 39 37 63 65 46 37 36 37 40 40 40 43 38 54 41 43 44 46 44 47
20 19 19 18 18 20 20 21 22 25 28 35 41 36 34 34 74 52 45 39 39 40 40 44 43 47 42 46 44 43 46 52 56

GFSFLT1_925_rhum_039.txt.gz
RH
86 87 70 70 68 76 76 71 75 76 69 66 76 84 90 90 70 60 56 60 68 81 80 68 77 82 82 79 80 87 89 88 85
85 76 74 72 67 74 82 86 85 79 78 82 86 87 76 73 70 70 67 59 50 79 83 78 69 74 85 79 75 80 79 80 80
87 86 79 74 74 76 77 86 89 90 85 88 88 89 88 83 79 77 75 71 64 77 82 82 81 72 71 75 80 83 76 82 84
85 80 74 70 72 82 80 79 81 82 84 83 72 67 69 70 70 70 68 68 65 81 79 81 79 77 78 78 78 77 77 84 79
76 72 71 71 76 74 67 62 63 68 68 68 69 68 68 68 69 67 66 66 66 78 89 85 82 78 78 81 83 83 83 79 83
70 71 73 73 73 72 70 68 69 71 71 71 71 71 70 71 70 70 68 68 67 72 78 83 86 82 72 66 69 82 88 88 86
62 67 70 71 72 71 70 70 70 71 71 71 72 72 73 74 73 71 72 76 94 90 88 86 84 85 78 75 73 78 85 88 91
66 66 65 66 68 68 70 70 71 72 73 73 74 74 74 73 69 71 59 58 77 80 78 79 80 81 81 82 86 85 85 88 88
66 65 66 66 68 70 72 73 74 73 70 65 58 54 50 47 45 43 43 44 50 62 65 68 71 77 83 86 86 85 87 89 85
64 66 70 74 76 76 72 64 59 60 58 51 47 46 42 38 36 33 36 37 38 59 63 64 67 70 74 77 82 85 87 88 89
78 79 76 73 67 60 58 60 50 44 38 32 28 26 23 20 18 31 30 31 34 38 63 59 60 66 64 66 68 70 71 73 74
75 70 63 56 54 51 51 44 34 27 23 19 17 16 15 12 28 33 22 30 23 24 48 59 55 57 55 57 62 64 64 64 66
70 66 57 51 49 42 35 27 20 20 18 16 15 14 12 20 41 24 22 30 22 23 27 27 31 42 48 52 50 54 62 68 70
64 57 46 38 32 26 21 18 17 22 18 13 13 12 14 33 29 17 26 25 24 28 25 22 16 29 45 46 54 58 62 61 63
47 35 30 25 24 21 17 15 16 28 20 13 12 14 19 38 28 15 27 24 25 22 20 15 13 17 45 46 55 61 63 64 60
28 26 25 23 21 17 16 15 14 23 24 22 22 16 27 29 29 17 26 21 26 16 19 14 18 20 35 42 50 61 58 52 54
27 26 23 20 17 16 17 17 17 22 31 39 51 56 31 32 17 18 21 31 20 28 18 25 28 37 40 30 58 50 50 53 52
26 24 22 18 16 17 20 20 21 30 26 36 34 44 48 54 30 22 38 28 35 25 30 31 37 43 38 43 50 51 52 50 54
23 22 19 17 17 18 20 20 22 24 34 29 32 34 40 56 61 42 36 36 32 36 35 39 42 39 40 48 46 52 49 52 56
21 19 17 17 18 19 19 20 22 24 28 32 36 36 34 41 71 50 44 35 34 38 43 42 43 42 45 45 46 49 51 54 58

GFSFLT1_925_rhum_042.txt.gz
RH
85 85 70 64 64 68 64 63 74 74 68 54 59 76 81 71 60 61 57 53 50 75 82 80 73 75 83 84 79 78 83 86 83
86 83 72 69 67 73 77 76 72 70 81 91 86 88 82 77 75 75 75 72 67 81 78 84 81 72 71 80 74 75 74 75 78
90 87 82 81 80 80 80 86 91 96 94 95 88 90 86 86 80 78 75 74 72 92 84 81 84 82 77 73 70 81 83 88 85
90 90 89 88 86 88 93 91 92 92 92 88 77 69 67 69 70 71 71 72 72 88 94 88 83 84 82 82 80 81 81 78 80
86 78 76 80 86 89 87 79 78 78 76 75 75 74 74 74 74 74 74 74 76 85 84 91 91 88 85 81 82 84 85 87 86
76 75 76 77 77 77 81 80 80 77 76 76 77 76 76 76 76 76 74 70 85 90 86 82 83 90 90 88 85 81 83 87 91
69 68 71 73 75 76 75 75 75 74 73 73 74 75 75 76 74 73 68 63 80 85 83 84 84 85 89 85 84 82 84 84 86
65 68 69 68 69 71 72 72 73 74 73 72 70 59 54 53 52 50 49 49 66 69 69 72 76 77 78 81 83 87 90 94 94
74 69 67 68 68 71 73 74 73 67 58 55 52 51 48 44 40 38 39 40 54 66 68 70 71 76 81 84 88 85 86 88 89
73 67 69 74 77 76 68 58 58 55 49 40 34 28 25 22 20 26 29 33 41 65 69 66 71 71 71 72 74 76 79 80 80
69 78 78 75 68 57 55 50 48 42 32 23 19 17 18 14 25 28 28 30 26 51 65 64 65 63 62 64 68 68 69 71 73
77 74 65 59 52 50 46 38 28 23 20 19 16 16 14 16 33 25 30 28 23 29 54 55 52 55 54 58 59 61 63 70 75
72 62 57 48 44 34 25 22 20 20 19 17 16 14 14 28 28 23 26 25 23 23 24 23 29 47 50 54 55 62 63 70 68
62 58 47 33 26 24 21 19 18 20 16 14 14 14 17 34 23 21 25 25 22 21 16 14 11 26 47 53 56 56 65 69 69
54 41 28 24 24 23 19 17 15 18 15 14 13 18 21 42 29 24 21 25 24 20 15 14 10 13 41 52 53 51 64 62 59
30 26 25 24 24 19 17 14 14 18 16 17 17 17 18 26 31 18 19 25 24 19 13 10 13 14 28 41 44 56 60 57 62
27 27 25 22 19 17 15 14 18 22 25 36 43 51 26 18 12 16 25 20 22 15 15 15 17 26 27 32 46 56 55 57 59
27 26 23 19 16 16 17 18 18 23 24 40 29 39 42 55 25 19 25 34 26 25 24 26 30 27 33 36 42 54 54 56 57
25 22 19 16 15 16 19 20 21 23 29 29 24 28 35 50 57 38 32 35 34 34 33 37 31 32 35 42 47 52 55 56 59
21 18 15 15 16 18 19 21 22 24 26 30 32 33 34 47 68 50 47 40 39 39 38 36 35 37 41 44 45 57 56 58 60

GFSFLT1_925_rhum_045.txt.gz
RH
84 80 70 62 63 63 65 69 76 73 66 58 69 77 73 69 71 71 73 71 61 68 79 81 81 75 78 83 84 80 81 81 84
85 74 72 70 73 77 81 81 75 73 86 84 84 91 89 94 91 81 78 77 75 96 86 79 83 84 79 73 86 76 74 72 71
89 83 79 79 80 82 87 90 92 94 94 93 80 75 71 84 87 74 73 73 74 98 95 90 82 83 84 81 74 72 77 84 84
92 90 92 87 87 88 94 90 90 91 92 86 78 76 76 84 80 75 76 73 71 91 96 94 92 87 85 85 85 84 82 84 84
85 88 81 84 87 90 91 89 85 82 79 78 78 76 75 75 75 75 75 71 74 96 96 86 93 92 90 90 88 85 86 86 88
83 75 77 78 79 81 86 85 82 77 76 75 75 76 76 76 77 76 73 68 84 86 88 88 86 86 87 83 83 84 87 89 88
72 71 72 73 75 75 75 75 75 74 75 75 73 70 65 63 61 60 57 58 73 75 74 77 81 81 81 83 91 94 86 83 89
66 68 70 70 70 71 72 74 76 75 71 63 57 56 56 53 50 48 46 46 65 70 72 76 75 85 87 91 87 86 88 91 92
72 71 68 68 69 72 75 77 71 61 57 49 44 41 37 31 27 28 31 35 49 67 75 72 78 76 77 78 80 82 85 86 85
74 67 68 72 77 78 67 59 55 49 43 36 26 22 20 17 19 24 30 33 53 67 74 71 70 69 68 71 73 72 73 75 78
70 70 76 76 71 58 53 51 47 40 30 21 18 18 16 15 25 26 30 29 49 68 66 63 62 63 62 63 65 65 70 71 77
70 75 70 67 62 54 48 38 26 22 21 19 17 17 15 22 28 30 30 26 24 46 52 52 51 53 55 57 62 63 67 67 73
77 70 60 53 47 39 24 22 22 21 19 17 16 15 17 32 27 28 27 24 20 19 16 15 16 42 48 52 58 60 61 64 72
70 60 51 36 26 24 23 22 20 18 16 15 15 17 22 33 26 24 24 24 22 20 16 11 8 8 41 52 58 60 58 62 67
60 48 32 24 26 24 21 18 16 15 14 14 15 21 28 38 28 25 18 22 24 21 17 16 15 8 23 50 51 52 58 65 66
55 29 24 26 27 22 18 15 15 17 14 20 23 22 18 34 35 20 21 27 22 23 17 12 16 24 19 41 50 55 55 62 61
26 26 27 25 22 17 14 14 17 23 23 31 38 28 22 25 24 22 28 22 27 15 14 18 24 32 38 36 49 51 56 60 62
27 26 25 21 17 15 16 16 16 32 30 24 28 24 24 33 29 26 28 30 25 29 32 33 32 38 38 44 47 52 56 57 61
26 22 20 16 15 15 17 18 19 20 32 31 30 26 37 27 27 34 32 35 33 37 37 35 40 40 41 46 52 56 62 61 64
20 18 16 15 15 17 18 20 21 21 30 37 37 40 40 52 44 30 28 35 36 39 39 43 42 42 46 49 51 56 60 62 65

GFSFLT1_925_rhum_048.txt.gz
RH
82 81 75 71 74 75 74 74 74 69 61 67 74 77 76 78 72 74 72 76 66 71 81 76 81 83 76 77 83 85 81 83 83
84 74 69 66 72 76 78 83 78 71 83 81 84 83 84 85 72 74 78 80 73 98 94 87 79 83 86 89 74 84 88 76 76
82 76 75 76 79 81 84 86 84 79 79 78 74 69 68 75 74 77 80 80 72 94 96 94 94 86 84 85 88 76 76 76 83
90 83 87 83 84 86 92 88 86 84 88 84 78 75 74 84 76 78 74 76 70 95 95 95 95 95 91 88 88 88 87 85 85
89 83 79 84 87 90 90 89 85 81 78 77 76 74 74 73 74 73 82 71 87 90 90 90 89 89 85 86 86 85 85 88 88
80 77 74 77 78 80 83 81 78 76 76 75 74 72 71 70 71 71 67 65 78 80 79 81 84 84 84 87 94 90 85 85 86
72 74 72 73 74 74 74 74 74 74 74 71 63 58 54 54 55 56 53 53 71 72 75 81 81 88 91 94 90 89 90 93 93
68 70 70 74 72 75 76 78 77 68 57 54 52 50 48 46 44 51 40 47 64 69 79 78 82 82 81 81 84 86 88 89 89
66 67 71 74 72 75 78 70 59 52 45 40 38 37 34 31 34 38 30 42 74 72 80 78 75 74 72 77 77 76 74 77 81
70 68 69 73 73 68 61 54 48 43 37 32 30 31 26 28 29 36 34 39 74 75 73 70 70 69 69 69 71 71 72 76 78
69 71 70 68 67 69 58 47 41 36 29 24 24 25 23 32 30 34 48 44 70 67 64 61 58 57 56 59 61 66 70 70 71
78 70 72 60 58 53 46 39 32 28 27 25 24 24 23 34 32 37 33 36 31 32 32 38 42 47 48 54 56 61 64 64 63
74 73 67 61 44 38 34 32 32 30 26 24 24 24 25 28 32 35 32 34 30 28 18 13 11 15 44 51 58 62 64 61 65
74 68 58 41 36 33 29 33 31 28 25 22 20 28 32 30 31 32 31 35 35 31 29 24 27 32 50 53 54 57 60 62 66
72 59 45 33 30 31 31 31 30 27 26 23 21 30 37 30 32 30 29 31 35 32 28 23 21 29 40 46 53 59 62 62 62
64 53 32 29 30 27 26 28 28 29 28 21 18 25 27 36 35 31 28 31 29 27 22 22 23 23 31 37 48 56 58 61 64
56 37 28 30 28 28 26 27 28 29 32 25 27 20 19 25 34 25 31 25 27 23 24 26 25 27 29 32 48 50 56 60 63
33 28 30 25 30 30 29 30 30 27 31 29 24 21 20 20 19 27 23 25 24 26 29 29 28 30 31 35 38 46 59 62 65
28 26 29 30 30 30 28 29 27 28 26 29 27 30 25 20 20 20 21 25 25 28 30 30 30 32 33 38 43 49 56 60 65
26 25 31 27 29 30 30 30 29 27 28 28 27 27 27 31 30 27 20 24 26 29 31 34 34 33 34 36 38 48 59 63 66

GFSFLT1_925_rhum_051.txt.gz
RH
83 81 76 73 73 76 72 71 71 64 61 72 82 83 73 77 64 66 69 72 69 86 91 86 75 80 84 79 76 82 86 83 82
82 83 81 84 84 83 85 86 77 66 84 94 94 82 71 79 63 65 70 76 69 92 91 92 93 85 83 87 90 84 80 91 84
85 83 83 86 87 88 89 86 81 76 76 76 72 63 65 74 64 70 72 77 72 94 94 92 95 95 94 89 86 88 90 82 78
87 81 83 84 85 86 85 83 80 78 80 77 73 71 70 72 67 71 69 72 83 90 95 92 91 94 89 89 92 91 91 90 90
87 73 80 85 88 84 85 85 83 77 75 74 72 69 71 68 64 65 71 69 82 84 84 84 88 88 88 93 96 94 87 86 84
70 81 68 74 75 76 78 77 75 72 74 72 69 65 61 59 61 61 63 61 77 77 78 84 86 91 97 92 91 92 93 95 95
64 74 68 70 71 72 71 72 72 72 66 68 58 53 50 50 51 51 55 56 74 75 83 84 87 86 85 86 89 89 89 90 90
66 69 68 70 67 75 75 77 71 63 54 51 49 46 44 42 40 45 35 42 65 78 84 85 80 78 79 82 81 79 77 79 82
58 59 64 66 65 67 72 65 57 51 44 41 40 38 37 31 33 34 36 38 62 82 80 76 76 73 73 73 74 76 76 81 81
57 60 61 63 67 66 63 55 49 46 42 36 30 29 28 26 30 33 40 64 78 75 74 69 66 64 62 63 64 66 71 72 73
60 60 64 65 63 62 57 48 44 40 30 26 24 24 24 26 30 32 44 55 60 68 63 58 54 54 52 54 55 62 63 68 66
65 64 67 60 54 49 47 42 35 29 30 27 24 24 23 26 28 34 32 40 35 28 22 20 26 28 46 51 56 60 64 66 65
75 67 63 54 48 43 39 34 32 32 29 26 24 24 25 27 28 34 32 34 30 32 30 19 17 18 44 55 59 60 62 63 68
72 63 65 49 42 38 32 35 31 29 28 25 19 25 30 31 28 30 31 34 36 34 31 26 23 29 39 50 55 62 64 68 67
62 54 47 41 38 34 34 34 31 29 28 23 20 27 34 30 32 31 29 29 34 32 28 25 23 26 31 40 48 58 63 66 66
55 51 42 36 32 31 29 30 30 32 28 22 20 25 30 36 32 35 27 28 28 28 24 24 26 25 30 34 40 54 57 63 67
64 56 44 34 31 30 29 30 30 31 30 26 27 30 25 26 30 28 26 27 26 24 25 28 28 28 29 32 42 43 51 64 64
61 56 46 45 32 33 33 31 31 30 30 29 28 31 31 23 17 22 25 24 24 25 26 30 28 29 32 34 36 44 53 57 64
45 37 34 33 31 32 28 30 27 28 29 29 26 32 28 27 27 19 22 20 24 24 27 28 30 32 32 34 37 42 47 57 63
34 34 39 38 31 30 30 31 28 27 28 29 28 26 27 28 30 36 24 24 25 27 27 28 30 33 33 34 36 41 51 58 64

GFSFLT1_925_rhum_054.txt.gz
RH
81 79 69 59 66 76 78 76 74 66 66 74 79 69 65 75 70 66 71 77 70 94 92 94 90 79 80 82 87 83 82 88 87
82 79 77 79 82 80 72 70 66 68 88 95 85 70 65 68 65 68 74 77 74 96 92 88 94 96 93 87 88 90 92 82 82
85 84 84 86 87 87 84 80 71 70 72 67 64 62 65 72 72 71 72 75 86 90 90 90 94 94 94 92 94 90 90 93 91
88 82 86 90 85 82 76 75 71 72 70 69 70 68 68 68 66 70 65 68 86 88 88 88 91 91 92 96 97 96 94 89 91
74 75 79 82 80 77 76 74 71 70 70 70 68 65 68 63 72 65 66 65 82 81 84 88 90 95 97 96 96 96 97 98 100
74 86 68 70 72 72 72 71 69 70 74 68 60 58 54 54 56 54 56 59 78 80 88 94 90 90 90 93 93 92 92 92 92
78 75 65 67 67 67 68 69 70 74 74 57 56 51 47 47 48 48 48 43 66 81 91 90 85 83 85 87 84 82 80 83 85
71 62 62 64 62 70 73 72 68 60 54 48 45 43 42 40 35 39 36 52 79 86 85 84 81 79 77 78 78 78 81 84 85
60 66 66 71 66 75 72 65 59 50 43 40 39 38 36 28 31 32 33 35 80 84 81 76 72 69 68 68 68 69 72 74 74
60 61 65 65 65 67 68 55 51 47 43 34 26 25 27 25 31 32 37 53 78 78 71 66 63 61 59 57 59 63 65 68 71
59 61 62 66 66 64 58 52 47 41 36 26 26 24 24 23 31 34 40 38 56 60 63 59 57 55 55 55 58 62 65 66 70
60 61 66 66 64 63 57 49 39 31 29 28 25 24 23 22 29 35 37 34 33 29 25 22 36 36 48 58 61 62 66 66 67
63 65 65 58 50 48 44 36 32 30 28 26 22 23 24 26 27 34 33 35 33 33 31 27 36 37 41 54 59 63 67 68 71
69 67 61 53 44 43 41 33 30 28 25 21 18 20 26 33 29 31 31 30 29 32 32 28 26 31 35 43 51 60 66 70 71
74 66 58 45 44 39 34 32 29 25 21 21 22 24 28 32 31 31 32 30 29 28 29 24 24 26 34 41 44 51 62 65 70
67 58 44 44 39 32 31 29 30 25 15 23 21 26 25 32 31 32 31 28 29 27 25 24 25 28 30 35 40 49 52 60 70
63 51 43 38 33 29 28 29 29 29 18 23 30 43 31 26 27 33 28 26 26 25 24 24 26 28 29 30 40 44 49 56 63
62 50 49 50 40 40 41 25 28 30 28 20 29 42 44 31 21 31 24 24 24 25 22 26 28 28 29 31 33 40 47 52 59
61 59 58 52 48 31 26 26 21 28 29 29 23 23 26 38 40 22 23 24 24 25 27 26 27 28 30 30 33 39 44 51 58
66 60 50 36 33 24 21 23 24 24 27 27 27 27 27 27 36 51 34 25 24 26 28 28 27 28 28 33 32 39 46 51 58

GFSFLT1_925_rhum_057.txt.gz
RH
82 82 84 85 80 84 82 76 80 73 63 58 52 60 72 73 64 70 75 79 86 94 88 88 94 78 64 79 88 91 88 85 90
81 81 82 84 86 89 87 81 77 74 73 67 62 60 69 70 72 71 76 78 86 94 79 87 88 92 95 94 89 89 92 94 85
82 85 85 86 86 87 82 72 61 63 65 58 58 63 67 73 76 70 68 69 88 92 87 91 94 94 95 96 96 93 90 92 93
86 86 88 90 81 72 65 63 60 62 65 66 66 68 70 73 71 65 64 70 86 87 92 92 92 98 98 97 96 98 99 100 99
71 68 75 73 66 62 61 63 65 67 68 67 65 68 65 73 70 66 64 66 82 86 91 96 95 94 96 97 93 92 92 93 96
68 66 67 66 67 66 67 67 68 73 70 58 60 56 55 57 56 55 52 59 80 90 96 94 90 88 93 91 88 86 87 88 90
71 79 64 64 64 66 66 68 73 73 72 56 56 47 46 46 47 48 45 49 74 92 92 88 86 86 84 84 83 82 86 88 88
78 76 64 64 65 66 71 74 66 53 52 46 44 42 41 39 36 36 35 62 83 88 87 82 77 76 74 75 73 75 77 78 77
78 62 60 65 64 72 75 73 62 51 44 42 42 39 37 30 30 33 31 62 89 86 77 72 69 67 64 65 64 68 68 70 75
68 64 67 68 69 74 67 60 56 49 42 32 26 24 26 25 29 33 36 50 80 76 70 66 64 62 60 60 62 66 67 68 72
59 65 68 70 70 73 63 53 51 50 45 28 26 24 24 24 28 34 39 40 49 60 60 56 54 54 56 61 64 66 68 71 71
60 65 64 69 66 64 59 53 48 43 31 28 25 24 23 23 30 34 38 34 32 30 39 43 46 47 48 58 61 66 71 73 76
61 62 67 67 65 63 58 48 39 30 28 25 20 22 23 25 29 34 35 34 32 32 30 33 38 39 43 49 55 61 68 71 73
62 64 66 65 58 51 45 38 33 28 24 18 19 19 22 30 31 33 33 32 30 28 27 26 22 25 40 47 52 54 60 66 70
66 66 64 59 51 46 41 33 28 24 18 15 20 24 24 30 29 31 31 29 28 28 26 25 23 21 28 42 45 49 58 61 67
71 68 62 54 49 45 37 30 28 20 14 16 20 27 27 30 29 31 31 29 30 28 26 24 22 24 25 26 39 47 52 57 61
75 70 59 49 47 36 31 28 26 24 15 17 31 40 31 27 30 33 34 28 28 25 25 24 26 27 27 27 35 40 46 52 57
75 65 51 46 42 37 30 28 28 27 24 15 25 37 40 34 24 32 31 27 24 26 25 27 26 28 28 28 29 30 44 48 53
72 59 47 44 44 40 37 24 21 21 24 24 20 20 24 31 27 22 26 25 24 24 22 25 28 28 27 28 29 35 41 46 53
63 59 52 55 55 45 26 22 19 22 20 26 25 25 28 28 37 43 37 25 22 23 27 24 27 30 32 33 34 40 47 48 53

GFSFLT1_925_rhum_060.txt.gz
RH
86 89 96 97 98 98 95 93 94 81 62 47 64 73 75 74 68 72 80 80 91 89 83 84 90 90 71 71 84 94 94 92 88
82 84 93 89 94 97 94 91 83 76 60 63 61 69 74 67 68 74 77 76 90 93 83 92 96 94 91 92 95 92 93 94 93
85 85 86 89 92 93 91 85 67 58 59 55 58 66 73 68 69 70 66 70 89 91 92 94 94 97 98 98 98 99 97 94 96
88 89 88 90 91 90 78 66 60 60 62 65 66 73 73 69 68 66 68 77 88 90 93 96 98 97 96 95 93 94 93 97 99
83 79 90 94 80 67 62 59 63 67 68 68 69 70 66 71 72 66 64 75 85 93 98 96 94 93 93 95 94 93 94 94 97
67 67 71 68 64 62 64 67 70 71 64 66 61 56 56 65 58 55 52 66 89 95 97 90 91 92 92 89 86 89 91 92 92
64 63 64 64 64 65 68 71 73 74 61 62 53 47 50 53 50 47 45 61 87 90 92 88 86 84 83 80 80 83 83 82 81
72 75 67 66 65 68 71 74 67 66 62 50 47 44 42 41 39 37 36 72 91 86 85 79 75 73 72 72 72 73 74 77 77
81 78 64 63 63 70 75 77 60 50 46 42 40 40 39 34 30 31 33 88 87 83 76 72 69 67 64 64 66 70 71 72 75
83 74 63 63 64 74 77 76 55 45 41 37 30 25 25 25 27 32 40 68 81 75 70 68 64 61 64 65 68 70 72 74 75
81 72 67 69 70 76 75 66 53 48 40 33 26 25 25 25 28 34 41 48 61 66 58 56 56 56 57 64 65 69 75 77 78
72 69 69 71 74 76 63 53 49 48 40 28 26 24 24 23 28 35 39 36 34 39 48 48 48 48 52 56 61 66 72 74 76
65 62 67 72 72 70 56 53 50 44 31 27 22 24 23 24 30 35 36 35 32 32 30 37 39 43 47 53 58 59 64 70 73
59 62 69 70 65 60 60 56 48 34 28 21 19 21 23 27 32 35 35 33 30 28 26 24 21 20 37 46 52 55 59 65 69
59 62 68 67 65 61 54 49 42 28 22 17 22 24 26 31 30 32 32 32 29 28 27 24 23 22 24 35 44 50 56 60 65
60 66 66 64 63 57 50 42 30 23 17 20 23 28 30 32 30 32 32 30 29 29 27 25 24 26 26 26 37 43 48 53 58
62 66 65 62 56 49 46 36 29 24 16 17 29 36 30 31 31 33 34 33 31 27 26 26 27 27 28 28 32 37 42 48 55
67 68 66 61 55 51 41 31 31 28 19 15 25 40 34 32 22 31 38 31 27 27 26 24 26 28 28 28 30 31 46 48 52
74 70 66 59 50 47 36 35 32 28 23 19 17 18 20 25 21 26 32 27 26 24 21 26 24 28 30 30 31 35 52 50 55
80 72 57 57 52 42 41 42 29 23 22 23 22 23 25 26 34 34 34 28 25 22 26 24 27 33 31 32 36 59 60 60 61

GFSFLT1_925_rhum_063.txt.gz
RH
87 88 85 94 88 86 90 88 79 81 60 67 78 76 75 72 71 78 81 83 93 83 83 83 91 93 84 72 84 93 94 91 90
88 93 93 96 97 97 97 92 87 73 56 64 70 73 72 69 73 76 76 93 94 94 93 95 96 97 98 96 96 94 93 94 90
86 92 94 93 97 97 93 88 82 57 66 66 67 74 71 74 72 68 70 81 89 93 95 96 98 98 95 94 96 96 98 97 98
86 86 90 93 95 97 93 79 62 61 63 70 72 74 71 71 69 71 72 77 89 93 97 97 96 96 86 91 91 94 95 96 97
87 83 89 93 94 79 69 67 66 70 71 72 74 73 72 72 70 67 68 82 92 96 97 95 92 85 91 92 92 92 93 92 93
74 74 84 84 73 68 69 71 73 75 73 71 67 59 64 71 62 56 56 83 93 97 93 93 87 87 88 86 88 89 88 87 86
59 67 71 69 65 68 73 75 77 75 67 62 51 53 59 57 52 48 55 77 93 90 90 88 85 83 79 77 78 79 79 82 79
65 65 73 73 73 77 83 81 78 79 70 58 50 47 49 46 42 40 53 83 88 85 82 77 74 72 71 71 73 73 73 77 77
70 65 66 68 71 76 78 78 66 64 71 46 43 40 39 37 33 31 40 91 86 81 75 72 70 68 68 69 70 74 76 77 77
76 78 72 66 69 72 77 79 62 49 45 40 36 30 27 27 29 36 62 78 80 75 71 66 63 63 66 69 70 73 78 79 81
82 81 74 66 67 73 79 82 58 43 37 34 31 26 26 26 30 36 56 61 69 66 60 58 58 55 58 61 66 72 77 78 79
82 82 78 66 71 74 80 83 54 46 43 37 29 26 24 24 30 39 42 44 42 50 52 52 51 54 55 59 62 64 70 75 77
79 78 80 71 74 76 79 68 51 46 42 31 26 24 24 23 30 37 37 35 33 33 32 32 38 42 46 51 58 60 64 67 70
74 73 75 73 74 77 73 55 50 49 39 26 21 22 22 25 30 37 36 34 31 29 27 25 22 22 38 46 49 54 56 63 68
72 72 68 70 74 73 60 54 50 44 30 21 22 22 26 29 33 36 36 32 30 28 28 24 24 23 26 38 43 50 51 55 60
69 69 68 71 71 65 58 52 47 34 23 22 26 30 30 31 32 33 33 33 32 30 28 25 25 26 25 26 33 46 48 50 55
66 64 65 69 68 62 57 53 41 26 20 20 28 40 34 36 35 35 34 34 32 31 27 27 26 25 25 26 27 30 51 50 56
67 64 62 67 66 63 55 49 43 27 24 19 27 43 38 36 28 35 40 37 33 29 27 24 25 24 25 28 29 33 56 55 56
69 68 65 67 63 60 55 48 37 32 28 22 20 20 23 27 22 30 36 32 29 27 24 25 24 26 29 30 29 55 63 63 65
75 75 70 68 61 60 59 45 36 36 33 23 21 21 21 21 28 29 32 32 29 28 24 26 26 30 32 31 34 54 59 60 62

GFSFLT1_925_rhum_066.txt.gz
RH
82 82 86 88 82 88 90 88 73 66 75 88 75 76 74 71 75 79 85 94 89 91 90 97 97 96 90 81 88 88 95 92 93
88 85 87 88 90 87 88 85 80 69 79 80 75 74 70 70 77 77 90 90 90 94 94 97 97 96 98 99 98 98 90 95 98
91 92 94 94 94 91 96 91 91 80 84 71 73 76 74 77 78 78 87 87 93 93 96 97 98 96 88 89 93 94 98 98 98
90 96 91 96 97 96 90 85 70 80 78 71 73 76 77 74 73 75 78 82 92 95 97 95 94 92 88 90 90 91 93 91 90
89 85 89 95 97 90 78 70 74 82 79 75 76 76 74 74 70 69 75 93 95 96 94 91 89 87 89 91 91 90 92 90 90
80 76 90 92 87 72 70 75 82 80 78 74 71 63 72 71 62 56 74 93 94 94 95 89 87 88 84 84 84 83 85 84 82
68 70 82 86 79 75 78 82 84 78 73 65 55 60 66 60 52 50 62 96 92 91 89 85 83 79 77 78 78 77 80 80 79
69 72 77 76 82 81 89 86 82 74 68 62 51 53 53 48 43 58 83 94 87 85 80 76 74 71 72 73 78 78 79 80 79
67 69 71 74 77 82 84 83 80 73 72 52 47 44 42 40 34 31 63 90 87 79 76 73 70 71 72 74 75 78 81 82 82
66 66 70 73 75 80 82 82 71 61 69 45 42 38 31 28 29 47 84 82 79 75 70 66 64 64 68 68 72 78 80 81 80
69 69 75 72 72 75 80 82 69 50 45 42 36 31 27 28 31 43 67 64 66 65 62 60 57 58 60 65 66 73 75 79 80
77 75 79 74 70 74 82 86 70 46 40 37 36 29 27 27 30 37 45 50 49 54 57 55 55 53 57 61 63 65 67 71 73
78 80 82 78 73 74 78 84 74 47 43 40 33 26 25 24 30 40 42 39 36 38 44 43 42 45 49 54 56 59 60 65 70
76 79 82 84 77 76 78 80 64 48 43 36 28 25 24 23 30 39 40 36 34 33 33 25 22 26 42 47 49 54 57 60 64
75 75 78 80 83 78 82 76 55 49 44 28 23 23 24 27 33 39 38 36 32 30 29 25 23 23 23 31 46 51 53 55 58
62 71 76 78 81 76 79 62 52 46 35 25 26 28 30 31 34 39 38 35 33 31 29 26 25 24 24 23 23 53 56 56 57
62 66 72 76 74 76 75 62 51 40 30 23 27 38 34 37 36 35 35 34 35 32 30 27 26 24 23 22 22 25 57 59 60
70 68 72 74 70 72 68 60 54 40 28 23 29 45 40 40 35 38 38 37 35 34 30 27 25 23 22 25 27 46 64 65 66
84 74 70 73 70 72 67 58 56 54 37 31 26 26 26 34 26 31 40 41 38 33 28 26 24 25 26 28 28 37 61 61 62
85 86 78 74 72 73 67 61 59 56 59 41 34 25 22 19 24 27 36 36 32 30 29 28 27 28 30 30 30 46 61 63 67

GFSFLT1_925_rhum_069.txt.gz
RH
78 83 78 82 79 83 97 85 70 60 86 96 77 73 70 75 77 88 93 88 90 91 96 96 98 95 97 99 93 90 95 90 91
85 79 85 82 93 91 87 80 78 60 88 79 75 72 70 74 75 83 86 92 91 91 95 96 97 97 97 98 99 98 99 99 100
85 86 88 90 93 87 84 89 80 68 80 75 74 73 72 75 75 81 90 90 89 94 96 95 92 93 90 89 89 94 95 96 98
94 87 93 96 94 89 85 91 71 78 70 71 76 75 76 73 75 81 86 87 94 96 96 92 92 91 90 90 88 89 92 91 90
95 89 93 96 95 89 83 84 90 81 71 74 77 77 78 73 73 71 85 94 96 94 91 90 90 91 91 91 90 88 86 85 86
88 84 84 89 93 89 81 90 91 78 76 75 75 72 76 70 63 65 84 93 91 92 91 91 88 84 83 82 83 85 83 82 83
75 83 89 89 89 85 90 91 83 78 74 68 63 65 70 62 52 51 88 94 90 89 86 85 81 78 78 79 80 80 82 80 83
72 80 96 96 80 92 91 88 83 75 70 58 57 59 56 51 47 63 89 90 89 82 78 77 74 74 76 80 80 81 81 82 84
69 72 78 80 76 78 85 85 82 78 68 57 52 49 46 42 39 50 91 92 85 78 77 73 73 74 76 76 78 82 83 83 82
65 67 71 73 76 79 82 81 80 69 75 53 44 43 40 31 31 64 90 85 79 76 70 68 66 68 69 71 76 80 80 81 83
61 66 68 72 75 77 80 80 76 60 65 46 42 35 30 29 36 65 88 74 66 68 66 63 61 61 63 68 69 72 75 75 78
62 64 69 70 73 76 80 83 77 55 48 41 37 35 30 29 34 49 62 67 56 61 61 61 57 56 60 60 64 66 67 69 72
72 75 73 78 77 76 80 85 77 53 44 40 39 33 28 28 33 46 54 52 47 52 51 49 48 50 53 55 56 58 61 65 68
80 76 76 83 84 76 77 85 84 62 46 43 38 30 26 25 29 39 44 40 37 35 35 28 23 25 41 50 52 55 57 59 61
82 77 76 83 89 83 80 82 79 61 48 40 32 28 26 24 29 39 44 38 35 33 30 26 22 21 22 26 40 52 58 60 60
71 75 74 79 89 89 79 82 71 54 46 35 30 28 28 28 32 40 43 39 36 32 29 28 25 23 23 23 21 28 55 59 62
74 69 69 76 83 87 86 82 68 50 45 34 37 36 37 36 34 40 43 40 36 34 31 29 27 25 24 22 20 32 68 68 68
80 72 65 66 80 80 85 81 73 51 41 31 33 45 43 44 38 36 37 38 37 36 33 30 28 26 23 22 22 27 34 63 64
85 79 70 62 70 79 80 78 73 60 50 34 29 32 31 45 36 32 41 40 39 37 35 31 28 26 25 24 26 30 38 64 66
90 86 79 73 72 77 77 76 70 58 63 51 44 36 38 38 30 33 40 40 41 40 35 30 29 28 27 28 30 32 53 61 65

GFSFLT1_925_rhum_072.txt.gz
RH
80 76 86 84 82 92 93 73 67 84 94 90 73 70 74 75 78 86 88 93 90 97 92 97 97 98 99 95 87 94 90 94 98
77 78 80 77 77 96 89 70 68 84 86 78 73 70 73 69 73 76 86 84 92 93 96 96 98 97 97 99 99 99 100 100 98
78 82 82 94 97 99 90 82 76 81 80 75 72 70 74 70 71 76 80 88 94 96 96 93 94 92 92 93 94 97 98 99 99
83 85 91 95 96 97 95 93 86 85 77 75 75 73 74 71 71 68 67 90 96 96 94 89 91 90 90 91 93 91 89 90 92
85 86 90 92 96 91 90 90 90 79 71 73 75 74 71 71 73 70 77 96 90 90 88 88 90 91 90 88 89 87 84 84 86
87 86 90 93 92 93 90 92 83 68 71 73 76 76 70 66 65 64 84 92 88 90 91 90 86 84 84 83 84 84 82 84 86
64 80 86 87 89 85 92 85 77 74 70 75 70 66 64 59 56 60 86 93 91 89 88 83 80 79 81 82 83 83 82 84 85
69 75 82 84 87 76 82 91 78 73 61 65 62 58 55 53 56 65 89 93 87 81 79 77 76 78 80 80 82 82 84 83 83
61 64 69 72 73 71 74 72 76 74 61 57 56 54 50 47 48 65 94 92 84 79 76 74 75 77 77 78 82 83 82 82 85
60 63 70 71 71 71 73 74 73 75 57 53 51 48 46 48 46 53 94 87 79 77 71 70 70 72 71 74 79 79 80 81 84
61 63 67 69 72 71 73 72 67 66 58 47 45 45 45 48 55 60 83 85 73 71 67 64 63 64 68 69 71 72 73 74 76
63 60 65 68 71 72 75 75 65 55 50 44 39 41 44 50 56 59 58 72 63 65 64 63 60 60 61 62 65 67 66 68 72
66 63 65 65 71 73 74 72 64 54 47 42 39 41 46 45 51 56 55 53 49 58 60 57 53 52 55 56 57 59 62 64 65
68 67 67 68 75 73 74 73 64 57 49 44 41 39 38 45 47 50 54 53 48 44 50 41 31 30 42 52 54 57 58 61 61
77 73 71 73 78 77 75 72 70 64 57 42 40 41 38 37 45 48 50 48 49 46 48 41 36 21 21 25 33 52 62 61 62
79 76 75 75 79 79 76 72 69 64 56 43 44 41 40 38 40 47 46 46 46 42 44 34 32 30 22 22 21 21 50 62 66
82 79 75 72 78 81 80 73 69 64 54 52 50 47 39 37 37 43 44 43 44 40 37 34 35 35 34 37 22 27 46 64 65
88 86 79 74 75 78 83 77 71 63 56 50 53 53 54 38 40 42 45 42 45 39 38 36 36 36 36 30 36 30 27 44 64
95 94 91 83 80 76 82 81 75 70 61 50 46 47 38 37 38 39 43 45 43 43 40 38 38 38 40 36 34 32 26 54 64
99 99 97 96 88 85 83 82 78 73 70 61 50 45 42 37 34 43 39 50 48 44 43 40 38 40 40 43 47 30 28 62 66

GFSFLT1_925_rhum_075.txt.gz
RH
80 91 84 80 87 96 81 77 79 88 93 87 73 70 70 74 72 85 88 94 97 98 98 97 98 98 99 90 95 98 100 100 100
77 83 82 80 89 92 80 78 87 88 82 74 69 68 69 65 76 80 80 91 96 90 92 96 97 96 99 100 99 98 96 99 100
76 78 80 78 93 98 90 80 93 84 78 71 69 68 69 60 65 74 81 93 95 93 93 93 92 92 94 97 97 97 97 97 98
82 84 88 90 95 95 88 82 77 82 74 71 69 68 69 64 63 60 80 93 94 93 91 88 91 92 92 92 90 88 88 87 88
82 86 89 91 94 93 90 84 75 71 70 73 71 69 68 64 66 65 87 89 87 86 86 90 90 90 89 88 86 85 86 86 87
78 86 87 88 89 85 83 85 77 65 68 71 73 69 64 60 59 73 80 90 89 89 89 88 86 85 84 85 85 83 84 86 84
64 84 89 87 88 86 84 76 67 66 73 73 72 68 60 55 52 74 85 92 90 89 87 83 81 83 84 84 83 83 84 84 85
62 78 87 89 85 88 87 84 82 72 58 66 64 56 52 51 52 72 87 93 85 82 81 78 79 81 82 83 84 85 83 83 86
54 59 66 70 78 65 72 74 68 66 58 55 54 52 50 47 48 70 93 91 83 79 75 76 78 79 78 82 83 82 82 84 86
50 53 58 62 62 60 65 63 62 66 55 51 50 49 47 47 42 67 92 89 79 76 72 73 74 73 74 78 79 80 78 79 82
50 52 57 60 60 60 62 62 63 64 59 49 49 47 46 46 46 66 92 89 77 73 69 67 67 66 70 71 73 71 71 72 75
50 52 55 59 60 60 62 63 61 58 57 50 44 44 43 48 52 54 72 82 75 65 66 65 63 63 65 65 66 66 65 67 70
54 54 54 56 59 60 62 64 64 56 52 48 43 42 45 47 48 52 51 60 59 60 65 65 57 55 57 58 59 61 62 62 62
58 55 54 55 58 61 62 64 62 57 52 49 44 42 45 46 44 49 49 49 46 55 58 57 48 43 49 53 55 57 58 62 62
63 58 56 56 58 63 64 64 64 58 55 50 44 45 42 42 44 45 47 47 50 46 49 46 38 27 26 29 38 45 54 60 61
66 65 61 62 62 66 65 66 66 64 60 54 44 46 44 42 40 44 46 45 49 46 44 49 37 32 22 21 22 23 26 59 68
70 71 69 66 66 67 68 67 67 65 63 54 52 58 49 44 40 40 43 43 45 42 41 42 34 31 35 36 32 25 23 32 64
77 74 75 71 67 68 70 72 69 68 64 57 56 63 64 45 41 39 43 42 43 43 40 36 34 36 36 38 36 28 22 23 62
87 82 82 78 72 69 72 76 75 70 67 59 58 55 43 52 50 41 41 43 41 44 39 37 36 37 38 41 43 47 35 26 63
92 91 89 88 82 74 74 75 80 74 69 62 58 54 52 44 41 53 45 43 43 44 43 41 38 39 41 42 43 38 28 35 63

GFSFLT1_925_rhum_078.txt.gz
RH
91 94 82 80 94 83 68 82 89 91 84 69 63 71 70 84 83 83 86 94 98 99 100 99 100 99 99 100 99 98 100 97 97
88 83 76 86 93 81 81 84 93 81 72 64 64 68 73 74 70 77 79 96 95 88 90 94 98 99 98 89 96 95 99 99 98
72 75 78 85 92 94 87 89 88 76 69 65 63 65 67 69 63 64 79 93 93 92 91 93 93 94 97 96 94 94 94 95 97
74 74 79 84 95 90 82 83 70 71 68 67 64 68 66 62 75 78 80 90 90 90 92 91 91 92 93 90 88 89 90 89 89
82 80 86 89 94 90 84 81 68 69 69 68 64 65 67 64 75 76 78 88 86 88 91 90 89 90 90 87 86 88 87 86 89
79 83 84 88 88 86 80 71 54 57 66 69 66 65 64 62 70 72 71 90 89 91 89 87 87 86 86 86 85 87 86 86 86
76 85 84 84 85 81 71 62 54 57 61 63 66 64 61 56 61 68 68 92 92 89 85 83 85 86 86 85 85 86 84 86 87
70 77 85 85 84 84 73 59 55 69 72 64 61 59 56 53 54 64 67 90 85 84 80 81 84 84 84 85 85 83 85 87 87
63 71 77 82 73 80 71 62 55 67 64 59 62 55 52 49 52 57 62 86 83 80 77 79 82 81 84 84 83 83 84 86 88
57 61 65 73 76 76 66 74 67 68 63 54 53 52 49 47 45 63 68 82 80 77 75 76 78 78 80 81 79 78 78 79 81
52 53 60 65 66 62 64 67 65 66 62 52 51 50 48 47 45 64 75 86 82 74 72 72 72 72 74 77 74 71 71 72 73
50 52 55 60 62 61 62 64 63 64 65 54 50 48 46 47 48 69 68 74 83 70 69 68 68 68 71 71 70 68 65 68 67
53 51 53 58 60 62 61 63 64 60 60 56 47 44 43 46 50 56 70 67 67 73 64 68 65 66 62 64 63 64 63 56 56
62 53 54 55 58 61 61 63 65 62 56 54 47 41 43 46 48 49 54 61 57 52 53 63 58 57 59 59 58 60 59 57 60
64 58 55 55 56 59 61 63 66 65 58 51 48 44 43 47 46 45 49 50 50 51 50 53 49 39 51 56 57 58 57 50 52
64 63 57 55 56 58 62 64 65 64 60 54 48 46 45 43 43 44 46 48 48 47 49 48 47 40 30 37 39 37 28 35 56
67 64 62 59 58 59 64 65 66 67 63 59 50 68 54 46 44 42 44 46 46 46 46 47 44 36 32 26 23 23 39 32 49
69 68 67 66 64 64 65 68 66 70 67 63 55 83 83 56 46 44 41 45 45 46 44 44 43 34 35 34 34 34 27 25 41
82 75 72 73 72 69 69 70 70 70 71 66 58 59 53 65 58 44 40 43 44 45 43 41 38 34 36 37 37 38 39 31 43
94 92 83 79 77 76 74 72 75 73 73 70 65 63 63 50 56 63 47 42 44 43 44 40 37 35 36 38 40 41 41 33 63

GFSFLT1_925_rhum_081.txt.gz
RH
96 93 81 96 81 72 83 93 84 56 59 72 72 73 80 74 75 84 94 94 96 97 89 93 96 95 96 96 96 95 91 88 97
87 70 81 95 80 74 80 81 64 57 58 68 71 72 70 70 72 77 91 92 92 92 91 95 92 96 100 96 95 98 98 98 90
81 74 84 92 92 75 77 70 68 63 57 67 69 71 66 71 64 72 88 90 88 88 93 93 94 95 95 94 93 92 92 93 92
72 76 83 93 86 78 78 66 66 64 60 61 68 69 72 73 72 72 85 87 88 89 91 90 91 92 90 90 91 91 90 90 90
76 81 82 92 88 82 75 67 55 64 62 61 68 67 73 74 76 74 80 89 90 91 91 90 90 91 88 88 89 87 87 87 88
80 74 80 83 87 84 76 67 48 62 63 60 65 67 70 76 74 70 71 88 92 90 88 89 88 88 88 88 89 88 88 88 87
82 82 83 86 85 81 72 61 46 56 62 61 64 64 65 67 65 69 63 92 93 89 86 87 88 88 87 87 86 86 87 87 86
77 86 85 86 86 79 69 57 52 56 61 58 62 62 60 56 54 62 61 86 89 85 84 86 87 86 87 86 84 86 88 87 86
76 76 82 84 82 79 69 52 50 68 69 65 60 60 56 55 55 56 61 74 85 82 81 83 84 86 86 84 85 86 87 88 87
65 68 70 78 80 70 64 51 49 68 72 65 60 58 52 49 50 56 60 67 75 79 78 81 81 83 84 83 82 82 82 84 82
58 61 63 61 67 64 66 67 65 68 68 60 56 53 50 48 46 47 59 67 72 74 77 77 78 79 81 79 76 77 75 75 77
59 55 60 62 66 67 66 67 71 71 68 60 53 52 50 48 48 55 67 72 78 72 74 74 74 75 77 78 72 71 69 71 70
60 52 56 61 66 65 62 67 67 67 66 64 52 51 49 47 48 56 69 71 68 73 68 72 72 70 74 72 71 67 67 63 55
63 54 52 54 60 62 62 63 65 66 64 64 56 47 46 44 48 51 63 69 65 63 67 65 67 69 67 67 66 67 63 52 54
65 63 52 53 57 60 62 63 64 66 64 59 57 49 43 43 47 51 52 58 62 57 52 56 58 55 62 63 62 62 62 62 38
65 65 62 54 55 56 60 62 64 67 67 59 53 50 45 43 45 48 49 51 53 55 53 50 52 50 42 57 60 62 60 56 58
65 65 65 61 56 56 57 61 64 66 67 60 57 64 54 46 45 44 46 47 50 50 51 52 52 50 45 37 50 56 55 57 67
67 67 66 65 59 56 57 59 63 67 69 62 57 84 79 64 49 47 43 44 46 50 49 49 49 47 41 34 32 27 46 65 60
78 71 69 68 65 61 60 60 63 68 72 72 60 55 61 70 64 48 48 44 44 48 49 48 47 47 41 35 33 36 40 37 57
83 92 83 77 71 68 67 68 68 69 73 73 71 66 65 60 61 66 54 48 47 49 48 57 50 45 38 37 40 42 47 60 61

GFSFLT1_925_rhum_084.txt.gz
RH
95 92 96 79 69 76 87 58 63 75 77 75 77 81 78 80 87 90 89 93 94 97 94 98 96 94 97 88 88 88 85 88 94
93 80 96 78 69 57 54 53 58 71 72 70 77 78 79 77 83 86 88 90 95 94 87 85 86 90 97 94 94 98 98 93 88
65 79 95 82 76 66 52 57 54 64 70 71 70 72 76 72 72 81 83 87 90 92 91 91 95 96 95 93 92 92 91 91 90
71 86 92 87 80 72 50 56 55 58 68 70 70 68 69 68 70 76 82 87 89 90 91 91 92 92 92 92 92 91 90 90 90
73 84 93 86 79 75 63 52 57 55 64 70 72 72 72 74 71 73 80 91 90 91 91 91 91 89 90 90 88 90 88 89 88
73 78 87 87 81 78 70 52 57 57 60 68 70 72 76 76 73 71 74 90 93 89 91 90 90 88 90 90 90 90 89 89 89
78 87 85 87 87 81 70 57 49 60 59 62 68 70 70 77 71 68 67 87 91 88 88 88 90 89 89 89 88 88 89 88 89
84 84 89 91 89 82 77 66 48 56 61 60 66 70 67 73 68 64 65 82 90 87 86 90 89 88 89 87 86 88 87 87 89
81 83 83 85 84 81 72 60 51 56 60 58 64 67 67 63 65 60 62 67 88 84 86 88 87 88 88 85 87 89 90 88 89
72 70 79 78 80 75 74 63 52 58 69 67 63 64 60 58 61 57 61 64 75 84 82 84 85 87 86 86 86 88 88 86 85
67 70 71 75 78 74 65 60 49 65 71 68 65 65 58 54 55 53 56 62 66 76 81 82 82 84 85 84 82 81 82 82 81
61 63 63 61 60 63 60 64 68 60 72 73 62 59 54 51 51 50 51 59 70 72 80 80 81 82 83 80 78 77 76 74 74
61 61 54 57 62 67 65 66 69 73 73 71 63 55 52 51 50 51 54 63 70 75 72 79 79 78 80 81 77 73 71 71 68
63 62 54 54 61 65 69 67 67 71 71 72 67 57 52 51 50 49 54 63 70 71 70 69 71 75 77 76 75 72 71 67 64
66 64 60 54 60 66 69 67 68 71 69 69 67 63 53 49 47 46 48 58 70 69 69 66 65 61 72 72 71 70 71 67 66
64 65 64 55 54 57 63 64 65 67 69 67 64 59 54 47 46 47 48 51 60 69 66 60 57 57 55 60 68 67 68 67 66
63 64 66 65 59 54 58 61 65 65 69 66 63 71 60 53 48 46 47 48 51 59 66 61 55 53 54 50 59 66 67 65 60
66 65 65 66 66 62 56 58 62 68 68 71 65 82 82 69 52 48 46 48 49 51 58 60 57 55 53 53 50 59 61 58 66
71 69 68 68 68 66 64 58 59 65 70 76 68 63 59 76 76 52 52 50 48 49 51 54 56 58 58 56 64 64 60 65 66
89 87 76 74 72 70 68 64 62 63 70 73 71 71 70 63 63 69 59 55 54 50 52 53 54 58 59 69 79 65 82 75 71

GFSFLT1_925_rhum_087.txt.gz
RH
94 96 79 65 66 85 82 90 92 83 82 84 81 79 86 90 93 91 96 93 99 99 100 99 90 92 85 87 89 84 86 90 98
90 98 78 65 45 52 69 76 79 76 81 82 82 84 86 87 83 83 83 90 92 89 84 83 83 87 93 93 94 92 91 90 86
88 94 80 70 59 48 53 67 74 71 75 78 75 78 77 72 72 80 81 90 91 87 90 91 93 95 95 94 93 92 92 92 92
91 94 86 77 68 45 54 57 68 72 71 71 70 73 70 69 72 75 74 86 90 91 93 94 93 94 94 93 91 91 90 90 90
85 92 91 80 76 60 54 59 60 69 71 72 70 71 72 73 72 75 79 83 91 92 92 93 91 91 92 91 91 90 90 88 88
84 90 91 86 80 74 52 57 60 64 72 72 73 74 74 75 73 72 75 89 92 92 92 92 90 90 92 91 91 90 90 90 88
85 89 94 90 83 79 68 49 60 62 68 74 73 72 74 76 72 70 71 86 92 90 91 91 92 91 92 90 91 90 90 90 89
84 91 93 94 91 85 76 66 51 61 62 67 72 71 70 75 72 69 68 77 92 88 88 91 91 90 91 88 89 90 89 91 91
82 82 86 86 86 83 77 68 46 52 61 63 68 71 68 71 71 69 69 66 79 84 88 90 90 90 90 87 90 90 90 91 91
80 81 79 82 84 80 75 66 51 49 56 59 64 69 69 66 65 65 69 65 67 74 86 88 88 89 89 88 89 91 90 89 89
65 71 76 74 75 77 73 70 60 48 59 67 68 67 67 61 60 61 63 63 64 65 84 85 86 87 88 87 87 87 87 85 84
64 68 70 70 71 76 77 74 68 56 64 71 71 65 66 65 57 57 56 59 59 65 79 85 86 85 87 86 83 82 81 79 78
75 68 67 65 65 65 68 67 70 70 61 69 72 70 61 59 55 56 55 54 56 64 73 80 84 85 85 85 81 77 77 76 74
76 68 64 63 60 64 66 70 71 73 73 75 75 75 63 55 52 53 55 55 57 62 71 74 74 79 82 82 83 80 75 75 69
74 69 64 63 57 60 66 72 71 70 69 71 73 74 70 59 54 52 52 54 56 62 67 73 72 72 71 78 79 78 76 73 69
72 69 65 64 59 56 59 65 72 73 75 76 76 73 69 64 57 53 50 49 53 60 68 70 72 68 68 65 76 72 74 75 71
65 66 66 65 63 59 59 66 73 73 74 74 71 82 70 63 61 56 50 48 51 56 63 72 72 67 62 59 62 70 70 71 68
64 63 65 66 66 65 61 59 67 69 70 72 69 84 89 73 56 53 54 51 50 52 54 62 70 70 64 65 64 65 70 78 79
65 65 66 69 68 68 67 64 61 64 69 76 74 69 65 72 77 55 52 50 50 49 48 50 56 69 68 66 64 62 78 68 85
83 78 75 74 74 73 72 70 68 67 67 72 72 77 78 73 73 78 72 60 56 56 52 51 54 57 65 71 69 72 73 87 98

GFSFLT1_925_rhum_090.txt.gz
RH
98 86 66 68 86 90 94 94 94 84 90 92 80 84 90 89 89 97 88 89 87 93 87 83 84 84 84 90 87 96 88 91 94
95 80 63 49 82 91 96 89 84 84 87 80 81 84 90 89 90 87 86 89 86 82 82 85 85 89 93 93 92 93 92 90 89
93 83 68 52 78 85 90 84 79 82 80 77 82 85 82 80 79 79 76 90 89 91 93 93 92 93 93 92 92 92 92 93 93
90 87 75 67 61 66 75 78 76 77 75 74 77 76 71 70 72 71 74 89 91 93 94 94 94 94 93 92 91 90 90 90 89
90 91 82 81 64 61 62 70 74 76 74 71 73 74 74 73 72 70 71 87 93 91 93 91 91 93 91 92 91 90 88 88 88
88 95 88 82 75 55 62 61 69 73 75 73 76 75 76 76 74 72 73 85 92 91 92 91 90 93 92 92 92 91 91 89 89
88 96 94 85 78 74 59 68 68 70 73 74 74 75 76 76 74 72 76 88 90 89 90 91 92 93 92 91 91 91 91 90 91
86 98 98 90 85 82 75 63 66 68 70 72 74 73 73 76 74 69 72 88 92 90 88 91 92 92 91 90 91 90 92 92 92
80 79 80 89 88 84 76 67 48 62 69 70 72 72 70 72 72 69 67 75 84 89 91 90 91 92 91 88 92 92 92 92 92
81 84 85 84 84 83 78 70 59 45 56 66 66 69 72 70 69 69 67 70 74 79 88 91 89 91 90 89 91 93 91 91 90
74 75 78 81 84 83 78 73 65 52 51 60 66 68 69 68 63 65 67 67 70 70 81 88 89 89 90 89 89 90 89 86 85
67 68 69 71 75 80 82 80 75 70 56 56 70 72 70 68 67 60 60 64 65 68 70 86 88 88 88 88 87 84 83 81 79
62 64 65 68 74 79 79 80 80 68 64 53 67 71 73 68 61 61 59 58 59 61 63 71 84 89 88 87 85 82 79 78 75
71 71 69 68 73 72 72 73 77 70 70 67 66 73 75 75 64 57 56 57 58 59 60 67 74 77 86 85 82 86 81 77 72
82 74 74 71 70 70 70 71 75 73 72 75 74 73 73 76 72 63 56 55 58 60 61 65 72 74 75 82 81 79 85 78 71
84 82 75 73 68 66 62 65 70 76 76 78 74 73 72 74 73 70 63 58 55 59 64 68 72 74 73 73 78 79 78 82 78
75 77 75 72 68 67 65 64 69 73 77 78 81 88 74 68 68 68 65 60 55 52 56 64 70 74 75 71 69 73 72 74 77
64 69 72 69 68 67 66 64 65 68 74 76 74 88 92 78 59 54 52 54 54 54 52 50 51 58 73 75 69 67 68 73 79
65 69 72 69 70 70 69 68 66 68 74 80 79 74 68 76 80 63 56 52 53 55 55 55 55 59 73 81 75 71 68 67 75
74 71 71 73 77 75 74 75 74 72 71 72 75 79 81 79 79 87 78 72 67 62 57 55 53 54 60 72 78 74 72 76 80

GFSFLT1_925_rhum_093.txt.gz
RH
97 83 86 82 89 92 95 95 94 86 88 91 87 89 82 83 95 94 88 85 95 95 93 91 92 85 92 92 93 93 92 94 95
84 61 52 74 94 95 96 94 91 88 80 84 88 88 86 91 87 90 88 82 84 91 92 89 90 91 89 92 93 93 94 93 89
83 65 50 79 90 95 95 93 89 81 82 82 86 86 85 83 79 79 86 89 90 92 92 92 91 92 91 91 90 90 89 90 89
87 73 57 80 83 87 90 82 83 78 75 78 78 74 71 70 69 77 84 90 90 92 92 92 92 92 92 91 90 89 88 87 88
92 80 75 58 64 74 83 81 77 74 72 76 77 74 74 71 70 74 84 93 90 93 91 91 92 92 92 91 90 89 88 88 87
93 87 81 67 61 64 71 77 75 74 73 74 76 75 75 72 70 75 75 88 91 91 91 91 92 92 92 91 90 90 89 88 88
93 94 89 87 70 67 68 66 71 73 73 74 77 76 75 75 72 71 75 87 91 90 90 93 93 93 92 91 91 91 90 90 91
89 97 97 92 87 78 63 65 64 69 73 74 74 72 73 76 75 70 72 83 90 86 87 91 92 93 91 91 91 92 92 92 92
83 89 92 88 81 77 71 64 61 67 67 70 72 72 71 73 73 71 68 74 88 84 89 92 91 93 89 91 92 92 92 92 92
81 85 89 89 86 83 77 70 68 57 64 67 67 69 71 71 70 70 69 68 72 83 87 93 90 92 89 90 92 93 91 90 91
76 80 83 82 80 81 79 76 70 64 57 60 64 65 67 69 67 65 66 65 67 73 88 91 90 90 90 90 90 91 88 85 84
71 74 77 76 78 81 81 80 75 71 64 55 60 69 72 69 67 67 64 64 67 66 74 89 90 90 90 90 89 85 84 81 79
76 74 69 69 75 77 78 80 80 74 68 62 54 67 72 73 70 64 61 60 62 64 66 72 88 91 90 89 88 86 81 70 68
72 64 64 68 74 77 77 80 77 74 68 64 60 58 67 74 75 73 64 59 59 60 62 67 74 81 89 89 84 89 84 80 70
82 73 70 73 74 76 77 75 73 74 70 72 73 72 71 72 71 72 71 64 58 60 63 66 70 75 76 85 86 83 91 83 78
83 83 80 78 80 71 71 69 72 76 78 82 80 69 66 68 68 72 74 72 66 60 58 62 64 66 71 74 82 82 81 89 82
84 83 83 82 78 76 72 72 72 76 76 81 83 72 70 66 64 65 68 66 66 62 59 55 57 65 73 76 75 76 80 80 88
81 80 80 81 83 77 71 70 70 76 73 74 74 78 74 75 61 58 55 55 57 58 56 56 57 61 69 77 80 76 73 78 76
81 84 78 73 80 80 75 71 71 72 82 79 78 74 71 75 79 64 59 59 56 56 57 57 57 56 55 59 74 81 77 76 92
70 68 72 77 79 81 79 76 78 78 78 74 77 80 82 82 80 85 76 74 71 68 65 60 59 58 58 59 64 75 81 88 96

GFSFLT1_925_rhum_096.txt.gz
RH
86 91 88 84 86 90 92 92 91 94 92 96 82 82 87 78 69 69 75 79 92 92 94 96 93 93 94 96 98 97 97 93 92
60 74 84 85 91 94 95 92 86 83 93 91 84 86 85 71 69 65 68 82 91 92 90 88 89 90 90 90 91 90 90 90 89
59 52 82 95 94 96 96 95 82 90 91 88 87 85 81 72 67 68 72 89 89 90 90 90 90 89 88 88 88 88 87 87 87
68 47 80 95 95 94 89 84 77 82 83 82 74 68 72 65 65 63 69 90 90 90 90 90 89 90 90 89 88 87 87 86 85
76 64 71 86 92 86 80 80 73 72 76 74 69 70 71 67 68 67 78 91 90 89 89 91 90 90 90 90 89 87 87 86 87
86 87 67 72 81 83 79 75 73 71 74 74 71 75 70 67 68 69 82 92 90 89 89 91 91 91 91 90 90 89 89 88 88
91 96 84 70 73 79 79 76 73 75 78 83 75 71 71 70 70 74 83 92 91 90 89 91 92 92 92 91 91 90 90 91 90
95 97 93 91 76 79 81 80 73 73 68 71 68 69 71 70 72 73 73 91 91 81 79 79 91 90 92 91 92 92 92 91 92
79 84 82 81 80 75 72 69 71 71 70 68 67 68 69 72 72 74 66 75 90 81 76 77 90 90 90 92 92 93 92 93 93
72 76 88 80 78 76 76 72 65 65 64 66 66 68 69 73 72 72 69 68 77 85 88 92 92 92 90 92 93 92 92 92 90
78 75 80 82 82 79 77 75 72 66 58 59 64 65 67 69 69 68 73 67 68 74 91 93 92 93 91 92 92 91 88 86 85
78 74 77 78 80 80 81 81 77 71 68 57 57 63 64 69 69 70 70 74 67 68 81 90 92 92 92 92 92 89 87 82 78
80 76 75 76 80 80 78 74 73 70 69 63 58 60 68 67 66 68 69 74 73 77 68 75 91 93 92 90 93 88 81 72 61
79 74 74 77 79 81 79 77 73 69 71 67 64 60 62 66 71 69 69 71 76 74 78 69 71 84 93 90 87 93 89 83 75
84 78 74 77 80 85 86 79 82 73 70 69 69 70 71 73 72 68 69 69 77 78 78 78 75 69 73 88 88 88 94 89 83
84 83 78 81 82 80 82 82 79 79 79 74 67 68 67 67 67 69 68 68 73 74 75 76 75 74 70 72 81 88 87 95 90
88 85 85 84 83 84 82 82 80 73 78 66 68 60 57 63 65 66 68 68 67 68 72 73 74 75 78 82 78 80 88 85 98
96 92 89 89 88 84 85 82 81 72 78 78 64 67 62 59 63 63 64 64 65 67 69 73 73 76 83 85 74 76 77 84 88
85 88 93 93 91 87 85 84 80 81 73 82 79 71 69 63 65 66 61 58 59 64 66 59 59 60 62 63 62 72 82 81 85
65 93 92 96 93 88 90 93 89 84 79 78 81 82 78 76 72 76 67 76 71 68 67 68 65 64 61 61 61 66 80 82 87

GFSFLT1_925_rhum_099.txt.gz
RH
88 91 90 82 84 87 93 94 95 91 76 80 80 73 66 58 60 65 76 86 86 90 90 91 91 91 93 93 94 93 93 91 90
93 92 82 85 86 87 90 91 89 90 88 79 80 77 66 58 58 66 77 87 87 88 89 89 89 89 89 89 89 88 89 88 87
82 85 86 88 92 91 92 92 89 90 84 83 80 71 64 58 63 71 83 89 87 88 90 89 88 88 88 87 87 88 87 86 86
54 82 88 96 89 89 93 90 89 84 82 78 66 64 60 59 58 61 77 89 86 86 88 87 89 88 88 88 87 87 86 86 85
49 77 88 88 87 87 81 75 79 77 69 62 61 64 60 61 62 71 86 90 88 88 89 89 88 89 90 89 88 87 87 86 86
70 72 82 87 85 79 79 71 69 71 70 66 68 66 60 60 63 78 84 91 87 84 86 89 89 89 90 90 89 88 89 88 88
86 80 69 79 81 80 74 71 70 76 80 73 69 63 61 62 64 74 81 90 85 73 70 88 91 91 90 91 90 91 91 91 91
85 93 87 88 71 85 78 72 76 64 62 68 61 59 61 62 64 64 71 90 84 74 75 86 91 91 91 91 92 92 92 92 92
85 80 74 74 74 67 72 66 62 66 61 59 58 58 60 62 64 70 62 77 82 77 72 77 84 88 91 92 93 93 93 94 93
69 68 66 66 66 64 63 58 59 60 56 56 57 60 60 64 65 67 69 64 76 80 82 82 86 88 90 92 93 93 93 93 92
60 64 75 68 66 64 65 63 60 54 51 52 55 57 59 60 62 62 69 66 65 77 92 93 94 94 92 92 93 91 89 88 86
66 62 68 68 67 65 66 65 63 59 55 48 48 52 53 59 62 64 64 71 68 67 84 93 95 94 93 93 93 92 86 72 68
68 64 66 66 67 68 68 68 66 62 60 58 50 50 56 59 59 61 64 68 70 73 67 76 92 95 93 90 93 89 82 76 69
66 63 63 64 68 68 67 65 63 61 63 60 57 54 55 61 61 61 62 66 70 71 73 74 67 82 95 91 92 96 91 84 80
70 65 63 65 68 71 74 69 70 64 62 60 58 62 63 62 65 66 65 65 70 77 74 76 73 67 72 88 89 91 99 93 85
76 76 69 68 70 73 74 73 69 73 71 68 65 66 65 66 67 66 65 62 67 72 74 76 76 73 74 69 80 91 89 99 95
79 79 78 72 74 74 74 74 75 70 72 69 63 66 59 62 62 61 62 63 64 68 70 71 72 72 72 76 76 78 92 89 94
85 82 81 81 80 79 79 78 79 74 71 74 65 70 71 59 60 62 63 64 65 66 65 68 70 72 76 81 83 82 80 80 90
91 92 90 87 87 87 83 83 81 81 73 75 78 70 69 69 67 60 60 59 60 62 66 68 69 63 63 66 78 68 77 80 87
76 81 75 92 94 90 86 86 85 79 80 74 78 80 79 78 74 76 70 68 68 64 65 67 71 70 69 72 66 60 66 76 81

GFSFLT1_925_rhum_102.txt.gz
RH
91 84 82 83 87 93 95 89 69 56 79 72 71 65 64 67 74 75 80 87 87 89 90 90 90 90 90 90 90 90 89 88 87
94 80 84 79 89 99 99 93 77 76 76 73 66 58 59 63 68 68 80 87 87 87 88 88 88 89 89 88 88 87 87 86 86
93 86 82 83 89 91 90 90 88 76 77 72 63 58 61 63 64 58 77 89 88 87 89 90 89 88 89 88 87 86 86 86 86
88 88 88 88 90 87 86 89 81 81 78 63 60 58 59 67 72 67 71 84 85 86 87 89 90 89 89 89 88 88 87 86 86
82 87 92 84 85 84 88 86 81 74 58 57 61 62 62 63 62 52 72 86 85 86 89 89 90 91 91 90 89 89 88 88 87
71 86 89 82 85 76 72 75 70 62 59 63 65 62 61 66 65 57 71 85 84 87 90 90 91 91 91 91 91 92 90 90 89
81 73 89 85 77 74 68 66 65 62 58 64 64 62 62 66 66 60 71 80 73 65 76 89 91 92 93 91 92 92 91 91 91
82 65 77 79 76 70 69 68 73 76 69 64 63 61 62 63 65 56 67 76 74 69 67 72 89 92 92 93 93 92 93 93 93
76 68 63 56 65 74 64 60 66 66 63 61 60 59 62 64 66 65 58 67 72 68 67 72 79 92 92 93 93 93 94 94 93
78 78 79 70 66 72 71 65 63 63 61 58 58 59 62 64 66 68 68 60 65 72 70 73 83 90 93 93 93 94 94 93 92
74 75 72 69 66 65 64 61 57 57 56 54 56 58 60 62 64 65 69 68 61 69 81 82 90 94 94 94 93 90 90 86 85
64 66 66 68 67 66 66 65 64 60 54 49 50 54 56 57 61 64 66 69 70 63 76 94 91 94 96 92 95 88 72 64 56
64 63 71 70 69 67 67 67 66 64 61 58 50 49 53 57 61 62 65 67 70 72 68 71 92 95 95 90 87 84 80 76 72
69 67 65 67 68 69 69 69 67 65 62 61 58 53 52 55 60 60 62 65 68 71 73 73 68 78 91 94 92 95 92 85 82
68 65 64 66 68 69 69 68 66 65 63 64 62 58 58 55 59 62 64 64 66 68 74 74 75 72 72 89 91 92 96 89 84
67 67 63 64 67 70 73 73 70 72 66 67 63 63 63 66 66 66 68 66 66 68 73 76 77 78 75 72 72 93 93 97 97
73 76 74 66 69 71 75 76 74 71 72 71 70 83 70 66 65 66 65 65 64 65 70 74 75 76 74 73 75 74 74 85 95
82 79 79 76 70 72 74 75 75 75 72 72 72 85 86 72 63 63 63 63 65 66 68 69 71 71 74 76 80 81 80 80 93
88 85 81 82 81 78 79 79 78 78 77 74 72 70 75 86 83 63 63 64 63 66 67 66 67 70 72 77 80 82 80 80 81
80 84 88 89 86 87 83 84 84 83 80 78 77 79 75 76 88 91 70 61 61 61 63 65 65 66 69 70 70 70 69 68 76

GFSFLT1_925_rhum_105.txt.gz
RH
78 83 87 82 83 89 86 56 83 81 75 69 69 77 72 68 63 63 86 88 88 90 90 91 90 89 88 88 87 88 87 86 85
85 82 78 87 87 85 80 74 81 76 65 63 64 64 63 57 46 74 86 88 88 88 89 90 90 88 88 88 88 88 87 87 85
85 80 84 94 94 87 86 76 76 73 64 60 62 61 62 40 46 67 82 88 89 90 91 89 90 90 89 88 88 88 88 87 87
79 81 85 90 89 86 90 74 73 70 62 60 63 67 65 57 43 57 76 85 85 88 91 89 90 90 90 90 90 89 88 88 88
88 88 82 83 84 87 81 76 76 59 58 59 62 67 65 61 40 49 71 87 87 88 89 92 91 92 91 91 90 91 90 89 88
88 93 85 78 85 87 78 73 58 53 63 64 65 70 66 64 48 50 68 88 88 90 92 91 91 90 92 92 92 92 92 91 90
90 93 84 75 72 73 70 62 55 52 64 64 64 69 66 65 51 55 64 79 87 87 93 92 93 94 93 93 92 92 91 92 92
84 90 84 75 73 67 64 61 61 56 61 64 65 67 65 64 62 53 60 73 80 75 74 88 93 92 93 93 93 95 94 94 94
74 67 73 68 67 65 64 71 72 73 67 63 60 64 66 66 66 66 56 62 68 70 70 67 79 90 94 93 94 95 94 94 93
76 54 49 51 59 56 56 64 66 68 66 63 60 61 64 67 67 68 68 60 63 69 68 75 79 88 84 82 84 94 93 92 92
73 69 73 58 68 69 66 66 65 60 60 58 59 59 62 66 66 68 68 69 63 67 79 85 84 87 91 91 82 80 70 65 59
71 74 76 71 68 68 65 64 60 57 56 54 56 56 58 59 62 63 64 67 71 67 74 87 87 88 98 97 94 75 65 66 58
72 73 76 74 69 68 68 67 65 63 58 53 50 51 54 56 60 63 64 66 70 72 69 75 83 90 98 93 95 81 79 77 72
65 65 68 69 71 68 68 68 68 66 65 63 59 54 51 54 60 62 64 64 66 70 73 74 72 79 87 95 91 96 94 88 81
67 66 67 70 70 70 70 70 70 68 66 64 64 61 58 56 52 57 62 64 66 68 70 74 77 76 78 86 94 94 95 90 85
68 68 66 67 69 70 70 70 69 68 67 67 66 62 58 58 61 57 61 66 67 67 69 71 76 78 78 75 75 92 93 96 99
66 67 65 64 65 68 70 72 73 71 71 69 74 83 71 66 64 66 67 67 67 68 68 71 76 77 79 77 76 75 75 91 93
68 68 71 66 66 69 73 76 77 74 74 71 69 90 86 80 67 65 66 67 67 67 69 72 75 77 77 76 75 79 80 79 85
87 84 79 79 70 68 70 73 76 77 76 76 73 70 74 87 85 67 68 69 68 69 70 71 71 72 73 76 78 81 83 83 80
98 100 95 94 95 82 83 82 82 81 80 78 76 75 78 80 84 92 73 66 66 68 69 69 68 68 66 67 68 69 70 71 75

GFSFLT1_925_rhum_108.txt.gz
RH
86 87 90 85 90 92 76 86 85 82 81 83 76 74 72 67 52 73 86 89 89 90 90 90 89 90 88 87 87 87 86 86 85
89 93 73 84 82 81 93 81 71 70 73 75 68 66 52 42 61 80 88 89 88 89 89 88 88 88 88 88 88 87 86 87 86
94 86 79 62 85 94 95 76 66 66 64 64 63 51 32 42 57 77 90 91 90 89 90 90 90 88 88 88 88 88 88 87 87
87 87 90 83 67 93 79 74 66 63 65 64 67 57 37 38 55 74 85 90 89 90 90 90 90 89 89 89 89 89 88 88 88
85 90 87 81 83 71 73 72 65 62 63 64 65 65 52 40 47 65 84 90 90 92 92 91 90 91 91 92 91 91 90 89 89
82 80 82 86 86 71 69 69 60 59 64 69 68 67 61 45 46 55 75 89 90 91 92 92 92 93 94 93 93 92 91 91 90
91 83 80 87 84 74 71 55 57 63 66 69 66 67 66 53 51 53 62 83 90 87 92 95 94 94 94 93 93 92 92 92 93
95 91 83 87 81 72 60 53 57 66 66 69 69 67 67 62 55 54 55 68 74 68 82 91 94 94 95 94 95 94 94 94 94
90 82 77 70 65 60 59 56 54 63 66 66 67 67 67 67 66 62 56 57 60 68 74 82 86 93 94 94 96 94 94 94 95
76 74 66 65 62 60 66 72 71 70 66 65 65 67 68 68 68 68 67 61 60 63 72 79 90 94 91 88 85 83 91 93 93
64 54 60 59 55 58 64 67 68 68 66 62 64 64 65 68 69 68 69 68 65 64 72 80 86 97 97 93 79 78 80 80 88
65 52 48 45 57 60 65 68 67 64 62 60 59 60 61 64 66 66 67 67 70 70 77 91 95 97 98 99 89 73 68 70 71
74 64 72 67 67 69 69 69 64 61 58 56 54 57 57 60 61 63 65 66 69 72 73 81 88 97 98 98 97 85 83 77 73
73 72 71 73 73 72 70 70 67 66 63 58 57 52 51 54 57 62 65 66 67 70 72 74 79 84 91 95 94 94 91 89 81
67 72 72 73 73 73 72 70 69 69 68 66 65 62 58 53 53 58 62 64 66 68 70 74 76 79 81 88 95 95 96 96 83
68 66 71 73 72 72 71 71 72 72 69 69 69 67 65 62 58 56 54 62 64 66 68 71 74 77 78 79 80 90 95 95 99
68 68 68 69 70 71 72 72 72 71 71 70 76 84 70 65 59 58 63 60 65 70 70 70 72 74 79 80 80 79 76 79 89
68 67 68 68 69 70 70 70 71 72 73 74 66 90 89 82 69 67 67 69 70 70 70 72 74 75 79 79 79 78 78 78 77
70 69 69 69 67 67 67 69 74 77 75 77 75 70 77 87 82 71 69 70 70 70 70 72 72 75 78 77 74 77 81 82 83
83 78 80 82 83 77 77 84 85 81 79 76 75 76 80 82 86 91 79 71 73 73 74 76 76 76 74 72 69 69 70 72 72

GFSFLT1_925_rhum_111.txt.gz
RH
99 94 85 85 87 86 88 91 88 87 85 84 80 77 70 51 63 76 85 89 88 88 89 90 88 88 87 88 87 87 87 87 86
90 77 80 80 78 90 91 84 80 78 77 72 67 53 44 50 66 83 88 88 87 87 88 88 88 88 88 88 87 88 87 87 87
79 73 86 84 85 91 88 74 75 77 68 64 49 32 38 50 68 82 88 88 87 88 89 88 88 88 88 88 88 88 87 87 87
70 68 76 74 91 86 71 68 68 65 63 60 37 30 34 43 60 77 87 90 89 90 90 89 89 89 89 89 89 89 89 88 88
88 63 64 78 87 81 69 66 64 63 63 62 60 38 36 41 53 71 89 93 91 92 91 90 91 91 92 91 91 90 89 89 88
93 91 72 82 85 75 70 65 64 63 64 65 65 51 41 40 47 59 80 92 91 93 92 93 93 93 94 93 93 92 91 91 90
86 87 84 75 78 73 70 64 64 65 68 69 68 64 51 50 51 56 72 90 91 90 87 92 94 95 94 95 94 93 94 93 93
81 83 90 85 76 74 69 57 64 68 72 69 68 68 62 55 53 56 60 76 79 76 79 80 90 96 95 95 94 94 94 94 95
86 85 90 81 75 73 56 60 66 70 72 72 70 70 68 67 63 59 59 61 68 73 76 76 92 96 95 95 96 96 96 96 95
91 82 86 82 76 62 52 54 63 67 71 72 69 69 69 69 68 67 66 62 63 66 81 89 94 97 96 96 97 96 96 94 92
83 78 73 69 64 60 56 59 62 70 69 69 68 68 69 69 69 69 69 68 66 68 82 86 96 98 98 98 96 89 88 86 85
70 69 70 65 62 63 71 72 70 70 68 66 65 67 68 68 70 69 70 70 70 72 76 89 98 98 98 99 98 88 79 76 74
59 54 59 60 59 59 61 64 69 69 66 62 60 62 64 64 66 67 69 69 69 71 73 78 90 97 98 96 96 92 84 78 74
68 60 45 46 56 68 68 70 71 66 62 60 57 54 56 59 60 62 65 68 69 70 72 75 80 86 92 96 96 88 94 87 82
78 68 68 71 69 71 73 73 71 69 67 66 64 63 63 55 54 56 62 66 68 68 71 74 75 80 82 84 94 96 97 98 94
77 75 73 75 75 73 72 74 74 73 71 72 71 68 66 65 63 56 57 60 62 66 68 72 74 76 78 79 79 77 96 94 90
75 73 73 75 76 75 74 75 76 75 74 72 78 85 66 65 64 63 61 59 60 65 67 71 73 76 78 80 78 77 75 76 95
69 69 67 72 76 76 76 75 74 74 74 72 69 89 87 83 73 66 62 62 67 67 71 72 73 77 79 81 78 79 77 75 76
75 73 72 70 71 72 72 73 74 74 75 81 74 69 75 88 86 73 72 70 71 73 74 73 74 77 79 79 80 77 77 77 77
80 80 80 71 70 70 70 74 78 79 82 82 78 79 81 81 86 91 78 70 71 74 72 72 73 74 76 77 78 74 72 70 71

GFSFLT1_925_rhum_114.txt.gz
RH
87 86 87 87 79 84 87 89 89 94 83 80 78 66 53 57 71 80 87 87 87 88 88 88 88 87 86 88 87 87 87 87 86
95 85 85 78 80 86 82 89 87 81 74 68 58 48 48 54 74 86 88 88 86 87 88 88 88 88 87 88 87 88 87 87 86
88 81 81 76 86 82 78 85 77 70 65 55 40 43 42 53 71 85 88 88 87 87 88 89 89 89 89 89 88 88 88 88 88
79 74 80 82 87 80 76 78 74 64 51 33 37 39 39 46 66 81 88 90 89 90 90 90 90 90 90 90 90 89 88 88 88
74 88 80 82 86 73 73 70 65 60 46 41 36 37 40 47 63 80 90 92 91 91 91 91 91 92 92 91 91 90 90 89 90
78 78 84 88 78 69 68 67 63 63 63 58 40 39 41 47 56 72 88 92 92 93 93 94 94 94 94 94 93 92 91 91 91
67 66 87 87 77 69 67 65 63 64 66 67 57 47 48 51 54 62 85 92 91 92 93 95 95 95 95 94 94 93 93 93 93
87 69 88 88 80 76 69 68 66 68 69 69 68 60 53 54 55 58 71 88 86 75 71 83 92 92 95 95 95 95 95 95 95
90 73 72 84 81 78 69 67 68 72 72 70 70 70 64 62 61 61 66 73 82 77 70 72 85 94 95 96 96 96 96 96 96
86 89 90 81 82 77 62 68 70 72 73 72 72 71 70 70 69 68 68 69 70 75 77 82 94 94 96 96 88 86 89 87 90
84 90 93 84 78 74 54 65 68 70 73 72 69 70 71 71 71 71 70 71 71 74 87 95 97 97 97 96 88 78 82 80 69
82 86 90 82 77 64 58 57 64 72 73 70 67 67 70 71 71 72 71 72 72 74 88 98 98 99 98 98 96 79 73 70 66
81 77 76 70 65 62 61 71 72 71 70 68 65 66 68 68 69 71 70 71 71 72 75 84 93 97 98 97 96 82 83 80 73
66 65 63 65 64 64 70 69 67 70 68 64 63 60 61 63 64 65 66 66 68 70 73 76 84 89 94 96 94 90 87 84 81
61 53 54 59 61 60 62 64 70 70 66 65 66 63 60 60 57 56 59 61 66 69 71 73 76 81 87 91 95 98 96 99 93
75 70 54 49 48 56 68 73 75 74 73 74 72 72 69 67 66 60 56 57 62 67 66 70 73 76 80 84 84 81 77 86 90
80 79 68 68 68 69 72 75 77 77 76 77 79 87 69 62 64 68 68 61 60 59 60 67 69 73 76 78 78 79 80 83 89
79 78 78 77 77 77 77 79 77 76 77 78 72 88 87 78 69 69 70 69 64 62 63 67 71 75 76 78 77 80 78 79 76
82 80 81 81 80 81 79 76 78 80 77 84 78 71 71 86 83 75 74 73 65 69 72 75 74 75 73 75 79 80 81 79 74
88 83 81 79 85 79 79 81 79 81 84 80 81 82 80 82 86 86 78 73 73 74 73 75 76 84 79 83 85 85 81 75 69

GFSFLT1_925_rhum_117.txt.gz
RH
93 92 82 81 80 85 91 90 90 80 78 76 62 54 59 63 84 85 88 83 86 87 87 87 87 88 87 88 87 86 85 86 88
91 87 81 78 79 84 89 89 86 78 74 66 44 52 56 75 87 88 86 84 86 87 88 88 88 89 88 88 88 88 88 84 85
92 82 76 80 81 86 91 93 78 70 60 43 47 54 58 72 87 91 85 87 87 88 89 89 89 89 89 89 88 89 88 88 88
93 80 74 82 77 88 88 78 71 64 41 41 48 54 52 63 82 88 84 89 88 89 90 90 90 90 90 90 89 89 88 89 88
83 74 79 81 78 83 84 74 64 40 34 40 44 48 51 56 70 88 86 91 90 90 91 91 91 91 92 91 91 90 91 89 88
76 85 86 80 78 79 77 67 55 50 38 40 41 43 48 57 80 88 90 92 91 92 93 94 94 94 94 93 92 92 92 91 91
82 82 88 82 74 74 70 65 61 62 53 46 45 46 52 59 77 87 91 94 92 93 95 96 94 94 93 93 93 94 94 94 94
92 91 93 79 71 79 71 68 65 66 65 60 53 53 55 60 67 87 90 95 93 93 95 93 85 95 95 94 94 94 94 92 94
98 100 97 84 72 70 67 67 68 70 69 68 66 60 60 61 62 73 77 90 95 91 89 86 88 94 96 95 87 79 79 81 82
100 100 97 86 79 70 68 67 70 72 71 71 71 69 68 67 66 66 68 73 78 85 84 82 87 90 94 87 82 88 85 77 62
76 88 96 91 86 74 66 65 71 73 74 73 72 71 71 71 71 70 71 70 71 75 88 90 94 94 98 95 78 72 71 66 58
85 82 86 87 83 76 62 69 72 72 74 72 70 69 71 71 71 73 73 73 72 76 94 96 98 98 98 98 90 68 66 65 62
89 96 90 84 80 75 61 66 68 72 73 70 68 67 68 69 70 71 72 72 72 72 76 91 94 97 98 93 95 78 81 81 75
83 90 90 83 79 69 59 61 66 70 70 69 68 64 64 65 66 65 68 69 70 71 72 76 85 91 91 93 93 93 85 83 82
80 78 82 76 68 64 64 67 71 68 70 70 66 64 62 59 58 57 59 62 65 68 70 72 76 79 84 85 96 97 94 97 92
77 72 70 68 65 61 64 69 68 72 73 72 72 71 71 71 68 66 63 56 56 62 67 70 72 74 77 81 82 80 82 88 94
72 68 68 68 66 66 64 67 75 78 77 80 83 74 69 66 66 68 69 64 58 59 63 65 66 72 74 77 78 80 80 80 82
75 73 67 59 56 54 56 70 76 78 79 79 75 79 71 72 65 69 70 75 69 64 61 61 64 69 73 77 77 83 79 80 78
86 83 81 73 65 71 71 73 75 80 80 84 81 76 74 72 68 71 72 76 76 68 63 63 68 73 77 79 80 86 84 82 83
94 92 86 85 83 83 86 88 87 89 85 84 85 83 86 88 88 80 76 70 75 79 76 78 81 82 78 81 83 88 90 85 83

GFSFLT1_925_rhum_120.txt.gz
RH
92 82 82 82 78 86 90 92 87 84 80 71 61 68 64 65 64 69 72 74 85 87 87 88 88 88 87 87 86 84 86 85 86
93 79 82 81 83 88 91 92 85 82 72 52 53 58 68 61 65 66 70 79 86 86 87 89 87 88 88 87 89 85 85 88 88
90 78 78 77 84 86 90 94 89 75 51 45 50 59 72 64 67 68 74 86 87 87 89 89 88 89 88 89 87 88 87 86 84
86 79 75 75 83 87 91 89 73 55 41 49 56 64 70 62 66 66 73 88 87 89 90 89 89 89 90 90 89 89 85 88 87
84 75 77 78 86 90 84 75 63 39 43 47 53 57 65 64 68 66 81 90 88 90 90 91 91 91 92 92 91 91 88 87 88
88 82 81 76 84 86 79 66 38 38 42 46 51 61 58 60 64 68 88 91 90 91 93 93 93 94 94 94 93 92 92 91 91
73 93 82 80 88 84 71 49 42 54 60 59 56 57 59 62 65 76 91 92 92 94 96 96 95 95 95 95 94 94 94 94 94
81 96 91 93 91 86 78 65 66 58 54 56 55 56 59 62 66 79 92 94 93 95 96 95 96 95 95 94 94 94 92 93 93
69 90 75 80 74 74 72 65 69 66 61 57 55 57 59 60 65 77 85 93 96 96 96 93 94 96 95 94 87 76 70 61 64
64 93 75 71 70 71 66 65 68 67 65 64 63 64 64 66 68 70 69 77 84 94 89 94 96 96 91 76 65 60 56 53 53
68 96 87 71 68 66 64 64 66 67 65 66 68 67 69 69 71 70 77 68 75 83 94 97 97 97 96 80 70 66 61 60 60
96 97 92 74 68 66 63 66 68 68 68 66 66 67 67 70 72 72 71 77 69 73 89 96 97 98 97 98 89 65 64 65 64
86 98 92 75 74 69 68 67 67 66 66 64 64 66 69 68 69 73 73 76 75 77 71 86 92 97 98 98 96 74 78 78 78
72 75 78 78 78 73 66 65 64 67 66 67 66 67 68 70 70 69 70 73 78 75 79 72 81 88 92 96 97 95 85 80 81
76 76 78 82 80 75 70 65 65 61 64 66 65 65 65 64 62 62 67 68 77 78 79 80 80 76 80 84 96 99 99 99 94
85 86 88 83 78 74 69 66 69 73 72 66 66 69 69 69 67 66 63 63 70 72 74 77 76 79 75 77 78 86 92 91 90
86 84 86 85 76 73 72 78 76 67 76 68 69 59 56 64 68 68 70 67 66 68 71 73 76 75 77 85 80 78 81 86 91
86 86 81 82 77 78 81 77 74 75 83 78 66 65 57 53 62 67 69 70 70 74 71 72 74 74 78 88 83 79 77 81 84
88 86 80 79 83 80 77 71 81 82 79 87 83 81 74 69 64 64 69 71 73 76 78 76 81 89 92 83 90 84 82 82 85
93 95 93 92 80 74 74 65 87 88 91 87 87 82 84 82 80 78 67 76 75 77 84 84 86 84 86 86 90 91 86 92 91